Time,TemperatureF,DewpointF,PressureIn,WindDirection,WindDirectionDegrees,WindSpeedMPH,WindSpeedGustMPH,Humidity,HourlyPrecipIn,Conditions,Clouds,dailyrainin,SolarRadiationWatts/m^2,SoftwareType,DateUTC
2013-01-31 00:01:00,51.8,39.2,30.24,ESE,110,3.0,0.0,62,0.00,,,0.00,0,WeatherHawk,2013-01-31 07:01:00,
2013-01-31 00:03:00,52.0,39.8,30.24,ESE,116,3.0,0.0,63,0.00,,,0.00,0,WeatherHawk,2013-01-31 07:03:00,
2013-01-31 00:07:00,52.0,39.4,30.24,ESE,114,2.0,-999.0,62,0.00,,,0.00,1,WeatherHawk,2013-01-31 07:07:00,
2013-01-31 00:10:00,52.3,37.6,30.24,East,91,2.0,0.0,57,0.00,,,0.00,0,WeatherHawk,2013-01-31 07:10:00,
2013-01-31 00:12:00,52.7,37.4,30.24,East,88,2.0,0.0,56,0.00,,,0.00,0,WeatherHawk,2013-01-31 07:12:00,
2013-01-31 00:16:00,53.6,37.4,30.24,East,87,2.0,0.0,54,0.00,,,0.00,0,WeatherHawk,2013-01-31 07:16:00,
2013-01-31 00:17:00,53.6,37.4,30.24,East,86,2.0,-999.0,54,0.00,,,0.00,0,WeatherHawk,2013-01-31 07:17:00,
2013-01-31 00:20:00,53.4,38.6,30.24,East,81,2.0,0.0,57,0.00,,,0.00,0,WeatherHawk,2013-01-31 07:20:00,
2013-01-31 00:22:00,52.9,38.1,30.24,ENE,76,2.0,0.0,57,0.00,,,0.00,0,WeatherHawk,2013-01-31 07:22:00,
2013-01-31 00:23:00,52.7,38.3,30.24,ENE,75,2.0,0.0,58,0.00,,,0.00,0,WeatherHawk,2013-01-31 07:23:00,
2013-01-31 00:25:00,52.5,38.2,30.24,ENE,64,2.0,0.0,58,0.00,,,0.00,0,WeatherHawk,2013-01-31 07:25:00,
2013-01-31 00:27:00,52.5,37.7,30.24,ENE,66,3.0,-999.0,57,0.00,,,0.00,0,WeatherHawk,2013-01-31 07:27:00,
2013-01-31 00:31:00,52.3,38.4,30.24,ENE,62,4.0,4.0,59,0.00,,,0.00,0,WeatherHawk,2013-01-31 07:31:00,
2013-01-31 00:32:00,52.3,38.4,30.24,ENE,62,4.0,4.0,59,0.00,,,0.00,0,WeatherHawk,2013-01-31 07:32:00,
2013-01-31 00:34:00,52.2,38.7,30.24,ENE,71,4.0,4.0,60,0.00,,,0.00,0,WeatherHawk,2013-01-31 07:34:00,
2013-01-31 00:36:00,52.2,38.7,30.24,ENE,57,3.0,3.0,60,0.00,,,0.00,0,WeatherHawk,2013-01-31 07:36:00,
2013-01-31 00:37:00,52.2,38.7,30.24,ENE,61,4.0,-999.0,60,0.00,,,0.00,0,WeatherHawk,2013-01-31 07:37:00,
2013-01-31 00:39:00,52.3,38.4,30.24,ENE,66,4.0,0.0,59,0.00,,,0.00,0,WeatherHawk,2013-01-31 07:39:00,
2013-01-31 00:41:00,52.0,40.2,30.24,East,79,4.0,0.0,64,0.00,,,0.00,0,WeatherHawk,2013-01-31 07:41:00,
2013-01-31 00:43:00,51.4,40.5,30.24,East,85,5.0,0.0,66,0.00,,,0.00,0,WeatherHawk,2013-01-31 07:43:00,
2013-01-31 00:45:00,50.5,40.4,30.24,ESE,104,4.0,0.0,68,0.00,,,0.00,1,WeatherHawk,2013-01-31 07:45:00,
2013-01-31 00:47:00,50.0,39.9,30.24,ESE,110,4.0,0.0,68,0.00,,,0.00,0,WeatherHawk,2013-01-31 07:47:00,
2013-01-31 00:48:00,50.0,39.9,30.24,ESE,110,4.0,0.0,68,0.00,,,0.00,0,WeatherHawk,2013-01-31 07:48:00,
2013-01-31 00:52:00,49.6,39.9,30.25,SE,128,4.0,0.0,69,0.00,,,0.00,0,WeatherHawk,2013-01-31 07:52:00,
2013-01-31 00:53:00,49.6,39.9,30.25,SE,132,3.0,0.0,69,0.00,,,0.00,0,WeatherHawk,2013-01-31 07:53:00,
2013-01-31 00:55:00,49.3,39.9,30.25,SE,129,3.0,0.0,70,0.00,,,0.00,0,WeatherHawk,2013-01-31 07:55:00,
2013-01-31 00:57:00,49.1,39.4,30.25,ESE,115,3.0,0.0,69,0.00,,,0.00,0,WeatherHawk,2013-01-31 07:57:00,
2013-01-31 00:59:00,49.1,39.0,30.25,ESE,115,4.0,0.0,68,0.00,,,0.00,0,WeatherHawk,2013-01-31 07:59:00,
2013-01-31 01:01:00,49.3,39.2,30.25,ESE,116,3.0,0.0,68,0.00,,,0.00,0,WeatherHawk,2013-01-31 08:01:00,
2013-01-31 01:04:00,49.1,39.7,30.25,SE,135,2.0,0.0,70,0.00,,,0.00,1,WeatherHawk,2013-01-31 08:04:00,
2013-01-31 01:05:00,48.9,39.9,30.25,SE,128,2.0,0.0,71,0.00,,,0.00,0,WeatherHawk,2013-01-31 08:05:00,
2013-01-31 01:09:00,48.9,39.2,30.25,ESE,118,3.0,0.0,69,0.00,,,0.00,0,WeatherHawk,2013-01-31 08:09:00,
2013-01-31 01:12:00,48.7,39.0,30.25,ESE,121,3.0,4.0,69,0.00,,,0.00,0,WeatherHawk,2013-01-31 08:12:00,
2013-01-31 01:13:00,48.7,38.7,30.25,ESE,121,3.0,4.0,68,0.00,,,0.00,0,WeatherHawk,2013-01-31 08:13:00,
2013-01-31 01:15:00,48.9,38.8,30.25,ESE,116,2.0,4.0,68,0.00,,,0.00,0,WeatherHawk,2013-01-31 08:15:00,
2013-01-31 01:17:00,48.7,38.7,30.25,SE,130,2.0,-999.0,68,0.00,,,0.00,0,WeatherHawk,2013-01-31 08:17:00,
2013-01-31 01:20:00,48.6,38.9,30.25,SE,138,3.0,0.0,69,0.00,,,0.00,0,WeatherHawk,2013-01-31 08:20:00,
2013-01-31 01:21:00,48.6,38.9,30.25,SE,132,3.0,0.0,69,0.00,,,0.00,0,WeatherHawk,2013-01-31 08:21:00,
2013-01-31 01:22:00,48.4,38.7,30.24,SE,131,3.0,-999.0,69,0.00,,,0.00,0,WeatherHawk,2013-01-31 08:22:00,
2013-01-31 01:23:00,48.4,38.7,30.24,SE,133,3.0,0.0,69,0.00,,,0.00,0,WeatherHawk,2013-01-31 08:23:00,
2013-01-31 01:26:00,48.0,38.7,30.24,SE,128,3.0,0.0,70,0.00,,,0.00,0,WeatherHawk,2013-01-31 08:26:00,
2013-01-31 01:29:00,48.2,38.5,30.24,ESE,114,3.0,0.0,69,0.00,,,0.00,1,WeatherHawk,2013-01-31 08:29:00,
2013-01-31 01:30:00,48.2,38.5,30.24,ESE,110,3.0,0.0,69,0.00,,,0.00,0,WeatherHawk,2013-01-31 08:30:00,
2013-01-31 01:32:00,48.4,38.3,30.24,East,100,3.0,0.0,68,0.00,,,0.00,0,WeatherHawk,2013-01-31 08:32:00,
2013-01-31 01:35:00,48.6,38.5,30.24,East,80,3.0,0.0,68,0.00,,,0.00,0,WeatherHawk,2013-01-31 08:35:00,
2013-01-31 01:37:00,48.6,38.5,30.24,East,89,4.0,-999.0,68,0.00,,,0.00,0,WeatherHawk,2013-01-31 08:37:00,
2013-01-31 01:38:00,48.4,38.3,30.24,East,87,4.0,0.0,68,0.00,,,0.00,0,WeatherHawk,2013-01-31 08:38:00,
2013-01-31 01:42:00,47.8,38.5,30.24,East,99,4.0,-999.0,70,0.00,,,0.00,0,WeatherHawk,2013-01-31 08:42:00,
2013-01-31 01:43:00,47.8,38.5,30.24,East,95,3.0,0.0,70,0.00,,,0.00,0,WeatherHawk,2013-01-31 08:43:00,
2013-01-31 01:45:00,47.8,38.9,30.24,East,91,3.0,0.0,71,0.00,,,0.00,0,WeatherHawk,2013-01-31 08:45:00,
2013-01-31 01:47:00,47.8,38.9,30.24,East,91,3.0,0.0,71,0.00,,,0.00,0,WeatherHawk,2013-01-31 08:47:00,
2013-01-31 01:52:00,48.2,38.5,30.24,East,98,3.0,4.0,69,0.00,,,0.00,1,WeatherHawk,2013-01-31 08:52:00,
2013-01-31 01:55:00,48.4,37.9,30.23,East,100,3.0,4.0,67,0.00,,,0.00,0,WeatherHawk,2013-01-31 08:55:00,
2013-01-31 01:58:00,48.4,38.3,30.23,East,87,4.0,4.0,68,0.00,,,0.00,0,WeatherHawk,2013-01-31 08:58:00,
2013-01-31 02:00:00,48.4,38.3,30.23,East,82,4.0,4.0,68,0.00,,,0.00,0,WeatherHawk,2013-01-31 09:00:00,
2013-01-31 02:03:00,48.2,37.8,30.23,East,80,4.0,4.0,67,0.00,,,0.00,0,WeatherHawk,2013-01-31 09:03:00,
2013-01-31 02:04:00,48.2,38.1,30.23,ENE,71,4.0,4.0,68,0.00,,,0.00,0,WeatherHawk,2013-01-31 09:04:00,
2013-01-31 02:08:00,48.2,38.5,30.23,ENE,58,3.0,4.0,69,0.00,,,0.00,0,WeatherHawk,2013-01-31 09:08:00,
2013-01-31 02:11:00,48.6,37.3,30.22,East,84,3.0,4.0,65,0.00,,,0.00,0,WeatherHawk,2013-01-31 09:11:00,
2013-01-31 02:12:00,48.7,37.9,30.22,ENE,77,3.0,4.0,66,0.00,,,0.00,1,WeatherHawk,2013-01-31 09:12:00,
2013-01-31 02:13:00,48.7,37.9,30.22,East,81,3.0,4.0,66,0.00,,,0.00,0,WeatherHawk,2013-01-31 09:13:00,
2013-01-31 02:17:00,47.8,38.9,30.22,East,82,4.0,4.0,71,0.00,,,0.00,1,WeatherHawk,2013-01-31 09:17:00,
2013-01-31 02:18:00,47.5,38.9,30.22,East,84,4.0,4.0,72,0.00,,,0.00,0,WeatherHawk,2013-01-31 09:18:00,
2013-01-31 02:19:00,47.1,39.3,30.22,East,80,4.0,4.0,74,0.00,,,0.00,0,WeatherHawk,2013-01-31 09:19:00,
2013-01-31 02:23:00,47.1,38.9,30.22,East,82,3.0,-999.0,73,0.00,,,0.00,0,WeatherHawk,2013-01-31 09:23:00,
2013-01-31 02:24:00,47.1,38.9,30.22,East,80,3.0,4.0,73,0.00,,,0.00,0,WeatherHawk,2013-01-31 09:24:00,
2013-01-31 02:26:00,47.1,38.9,30.22,East,82,3.0,4.0,73,0.00,,,0.00,0,WeatherHawk,2013-01-31 09:26:00,
2013-01-31 02:29:00,47.3,39.1,30.22,East,80,3.0,4.0,73,0.00,,,0.00,0,WeatherHawk,2013-01-31 09:29:00,
2013-01-31 02:31:00,47.3,38.7,30.22,East,83,4.0,4.0,72,0.00,,,0.00,1,WeatherHawk,2013-01-31 09:31:00,
2013-01-31 02:33:00,47.3,38.7,30.22,East,82,4.0,-999.0,72,0.00,,,0.00,0,WeatherHawk,2013-01-31 09:33:00,
2013-01-31 02:34:00,47.3,38.7,30.22,East,84,4.0,4.0,72,0.00,,,0.00,0,WeatherHawk,2013-01-31 09:34:00,
2013-01-31 02:38:00,47.3,39.1,30.22,East,84,4.0,4.0,73,0.00,,,0.00,0,WeatherHawk,2013-01-31 09:38:00,
2013-01-31 02:39:00,47.1,39.3,30.22,East,81,4.0,4.0,74,0.00,,,0.00,0,WeatherHawk,2013-01-31 09:39:00,
2013-01-31 02:42:00,46.8,39.3,30.22,ENE,77,4.0,4.0,75,0.00,,,0.00,0,WeatherHawk,2013-01-31 09:42:00,
2013-01-31 02:43:00,46.8,39.3,30.22,ENE,78,3.0,-999.0,75,0.00,,,0.00,0,WeatherHawk,2013-01-31 09:43:00,
2013-01-31 02:45:00,46.6,39.4,30.22,East,80,4.0,4.0,76,0.00,,,0.00,0,WeatherHawk,2013-01-31 09:45:00,
2013-01-31 02:46:00,46.6,39.4,30.22,ENE,78,4.0,4.0,76,0.00,,,0.00,0,WeatherHawk,2013-01-31 09:46:00,
2013-01-31 02:48:00,46.6,39.4,30.22,ENE,78,4.0,-999.0,76,0.00,,,0.00,0,WeatherHawk,2013-01-31 09:48:00,
2013-01-31 02:51:00,46.8,39.3,30.22,ENE,74,4.0,4.0,75,0.00,,,0.00,0,WeatherHawk,2013-01-31 09:51:00,
2013-01-31 02:52:00,46.8,38.6,30.22,ENE,69,4.0,4.0,73,0.00,,,0.00,0,WeatherHawk,2013-01-31 09:52:00,
2013-01-31 02:54:00,47.1,39.3,30.22,ENE,74,4.0,4.0,74,0.00,,,0.00,0,WeatherHawk,2013-01-31 09:54:00,
2013-01-31 02:56:00,46.9,39.4,30.22,ENE,78,4.0,4.0,75,0.00,,,0.00,1,WeatherHawk,2013-01-31 09:56:00,
2013-01-31 02:58:00,46.8,39.3,30.22,East,80,4.0,-999.0,75,0.00,,,0.00,0,WeatherHawk,2013-01-31 09:58:00,
2013-01-31 03:00:00,46.8,39.3,30.22,East,80,4.0,4.0,75,0.00,,,0.00,0,WeatherHawk,2013-01-31 10:00:00,
2013-01-31 03:03:00,47.1,38.6,30.22,ENE,71,5.0,5.0,72,0.00,,,0.00,0,WeatherHawk,2013-01-31 10:03:00,
2013-01-31 03:08:00,47.8,38.9,30.22,ENE,74,5.0,-999.0,71,0.00,,,0.00,0,WeatherHawk,2013-01-31 10:08:00,
2013-01-31 03:09:00,47.8,38.9,30.22,ENE,77,5.0,6.0,71,0.00,,,0.00,0,WeatherHawk,2013-01-31 10:09:00,
2013-01-31 03:11:00,47.8,38.9,30.22,ENE,77,6.0,6.0,71,0.00,,,0.00,0,WeatherHawk,2013-01-31 10:11:00,
2013-01-31 03:13:00,48.0,38.3,30.22,East,79,6.0,6.0,69,0.00,,,0.00,0,WeatherHawk,2013-01-31 10:13:00,
2013-01-31 03:17:00,48.2,38.9,30.22,ENE,75,6.0,6.0,70,0.00,,,0.00,0,WeatherHawk,2013-01-31 10:17:00,
2013-01-31 03:18:00,48.2,38.9,30.22,ENE,72,5.0,6.0,70,0.00,,,0.00,1,WeatherHawk,2013-01-31 10:18:00,
2013-01-31 03:22:00,48.7,38.3,30.21,ENE,65,5.0,6.0,67,0.00,,,0.00,0,WeatherHawk,2013-01-31 10:22:00,
2013-01-31 03:23:00,48.9,37.7,30.21,ENE,60,6.0,-999.0,65,0.00,,,0.00,0,WeatherHawk,2013-01-31 10:23:00,
2013-01-31 03:25:00,49.8,37.3,30.21,ENE,62,6.0,6.0,62,0.00,,,0.00,0,WeatherHawk,2013-01-31 10:25:00,
2013-01-31 03:27:00,49.8,38.1,30.21,NE,55,6.0,6.0,64,0.00,,,0.00,0,WeatherHawk,2013-01-31 10:27:00,
2013-01-31 03:28:00,49.6,38.4,30.21,ENE,59,6.0,6.0,65,0.00,,,0.00,0,WeatherHawk,2013-01-31 10:28:00,
2013-01-31 03:31:00,48.9,37.7,30.21,ENE,62,6.0,6.0,65,0.00,,,0.00,0,WeatherHawk,2013-01-31 10:31:00,
2013-01-31 03:33:00,49.1,37.5,30.21,ENE,64,6.0,6.0,64,0.00,,,0.00,0,WeatherHawk,2013-01-31 10:33:00,
2013-01-31 03:36:00,49.5,37.8,30.21,ENE,69,6.0,6.0,64,0.00,,,0.00,0,WeatherHawk,2013-01-31 10:36:00,
2013-01-31 03:38:00,49.5,37.4,30.21,ENE,67,7.0,7.0,63,0.00,,,0.00,0,WeatherHawk,2013-01-31 10:38:00,
2013-01-31 03:43:00,49.3,38.0,30.21,East,86,4.0,-999.0,65,0.00,,,0.00,0,WeatherHawk,2013-01-31 10:43:00,
2013-01-31 03:44:00,48.9,38.1,30.21,East,85,4.0,7.0,66,0.00,,,0.00,0,WeatherHawk,2013-01-31 10:44:00,
2013-01-31 03:48:00,47.8,37.8,30.21,East,80,5.0,-999.0,68,0.00,,,0.00,1,WeatherHawk,2013-01-31 10:48:00,
2013-01-31 03:49:00,47.7,38.0,30.21,East,80,5.0,6.0,69,0.00,,,0.00,0,WeatherHawk,2013-01-31 10:49:00,
2013-01-31 03:51:00,47.5,38.2,30.21,East,82,5.0,6.0,70,0.00,,,0.00,0,WeatherHawk,2013-01-31 10:51:00,
2013-01-31 03:53:00,47.5,38.2,30.21,ENE,78,4.0,-999.0,70,0.00,,,0.00,0,WeatherHawk,2013-01-31 10:53:00,
2013-01-31 03:55:00,47.3,38.0,30.21,East,87,5.0,6.0,70,0.00,,,0.00,0,WeatherHawk,2013-01-31 10:55:00,
2013-01-31 03:57:00,47.3,38.0,30.21,East,88,5.0,6.0,70,0.00,,,0.00,0,WeatherHawk,2013-01-31 10:57:00,
2013-01-31 03:58:00,47.3,38.0,30.21,East,88,5.0,-999.0,70,0.00,,,0.00,0,WeatherHawk,2013-01-31 10:58:00,
2013-01-31 04:03:00,47.1,38.2,30.21,East,93,4.0,5.0,71,0.00,,,0.00,0,WeatherHawk,2013-01-31 11:03:00,
2013-01-31 04:05:00,47.1,37.8,30.21,East,89,4.0,5.0,70,0.00,,,0.00,1,WeatherHawk,2013-01-31 11:05:00,
2013-01-31 04:08:00,46.9,38.0,30.21,East,89,4.0,5.0,71,0.00,,,0.00,0,WeatherHawk,2013-01-31 11:08:00,
2013-01-31 04:10:00,46.6,38.0,30.21,East,87,4.0,5.0,72,0.00,,,0.00,0,WeatherHawk,2013-01-31 11:10:00,
2013-01-31 04:12:00,46.4,37.9,30.21,East,86,3.0,5.0,72,0.00,,,0.00,0,WeatherHawk,2013-01-31 11:12:00,
2013-01-31 04:13:00,46.4,37.9,30.21,East,86,3.0,5.0,72,0.00,,,0.00,0,WeatherHawk,2013-01-31 11:13:00,
2013-01-31 04:15:00,46.2,37.7,30.21,East,79,3.0,5.0,72,0.00,,,0.00,0,WeatherHawk,2013-01-31 11:15:00,
2013-01-31 04:17:00,46.2,38.0,30.21,NE,54,2.0,5.0,73,0.00,,,0.00,0,WeatherHawk,2013-01-31 11:17:00,
2013-01-31 04:18:00,46.2,38.0,30.21,NE,54,2.0,-999.0,73,0.00,,,0.00,0,WeatherHawk,2013-01-31 11:18:00,
2013-01-31 04:22:00,45.9,38.7,30.20,NW,326,1.0,5.0,76,0.00,,,0.00,0,WeatherHawk,2013-01-31 11:22:00,
2013-01-31 04:23:00,45.7,38.6,30.20,NNW,339,1.0,5.0,76,0.00,,,0.00,0,WeatherHawk,2013-01-31 11:23:00,
2013-01-31 04:26:00,45.5,38.4,30.20,NNW,337,2.0,5.0,76,0.00,,,0.00,0,WeatherHawk,2013-01-31 11:26:00,
2013-01-31 04:28:00,45.5,38.7,30.20,NNW,348,1.0,5.0,77,0.00,,,0.00,0,WeatherHawk,2013-01-31 11:28:00,
2013-01-31 04:32:00,45.5,38.4,30.20,East,81,2.0,2.0,76,0.00,,,0.00,1,WeatherHawk,2013-01-31 11:32:00,
2013-01-31 04:33:00,45.5,38.4,30.20,East,81,2.0,2.0,76,0.00,,,0.00,1,WeatherHawk,2013-01-31 11:33:00,
2013-01-31 04:35:00,45.9,38.7,30.21,ENE,76,1.0,2.0,76,0.00,,,0.00,0,WeatherHawk,2013-01-31 11:35:00,
2013-01-31 04:38:00,45.9,38.7,30.21,NE,43,0.0,2.0,76,0.00,,,0.00,0,WeatherHawk,2013-01-31 11:38:00,
2013-01-31 04:39:00,45.9,38.7,30.21,ENE,60,1.0,2.0,76,0.00,,,0.00,1,WeatherHawk,2013-01-31 11:39:00,
2013-01-31 04:43:00,45.9,38.7,30.21,NE,36,1.0,2.0,76,0.00,,,0.00,0,WeatherHawk,2013-01-31 11:43:00,
2013-01-31 04:48:00,45.7,38.6,30.20,NNW,332,1.0,2.0,76,0.00,,,0.00,0,WeatherHawk,2013-01-31 11:48:00,
2013-01-31 04:50:00,45.7,38.6,30.20,NNW,343,2.0,2.0,76,0.00,,,0.00,0,WeatherHawk,2013-01-31 11:50:00,
2013-01-31 04:53:00,46.0,38.6,30.20,North,359,2.0,-999.0,75,0.00,,,0.00,1,WeatherHawk,2013-01-31 11:53:00,
2013-01-31 04:54:00,46.2,38.4,30.20,NNE,13,3.0,3.0,74,0.00,,,0.00,0,WeatherHawk,2013-01-31 11:54:00,
2013-01-31 04:57:00,46.9,38.4,30.20,North,6,4.0,4.0,72,0.00,,,0.00,0,WeatherHawk,2013-01-31 11:57:00,
2013-01-31 04:58:00,46.9,38.4,30.20,North,6,4.0,-999.0,72,0.00,,,0.00,0,WeatherHawk,2013-01-31 11:58:00,
2013-01-31 04:59:00,47.3,39.1,30.20,NNE,12,3.0,4.0,73,0.00,,,0.00,0,WeatherHawk,2013-01-31 11:59:00,
2013-01-31 05:03:00,46.9,38.7,30.20,NNE,25,4.0,4.0,73,0.00,,,0.00,0,WeatherHawk,2013-01-31 12:03:00,
2013-01-31 05:05:00,46.9,38.7,30.20,NNE,31,4.0,4.0,73,0.00,,,0.00,0,WeatherHawk,2013-01-31 12:05:00,
2013-01-31 05:06:00,46.8,38.6,30.20,NE,35,4.0,4.0,73,0.00,,,0.00,0,WeatherHawk,2013-01-31 12:06:00,
2013-01-31 05:08:00,46.8,38.9,30.20,NE,38,4.0,-999.0,74,0.00,,,0.00,1,WeatherHawk,2013-01-31 12:08:00,
2013-01-31 05:11:00,46.4,39.3,30.20,NE,35,3.0,5.0,76,0.00,,,0.00,1,WeatherHawk,2013-01-31 12:11:00,
2013-01-31 05:12:00,46.2,39.4,30.20,NNE,33,3.0,5.0,77,0.00,,,0.00,1,WeatherHawk,2013-01-31 12:12:00,
2013-01-31 05:13:00,46.2,39.4,30.20,NNE,33,3.0,-999.0,77,0.00,,,0.00,1,WeatherHawk,2013-01-31 12:13:00,
2013-01-31 05:16:00,45.5,39.4,30.20,NE,49,2.0,5.0,79,0.00,,,0.00,0,WeatherHawk,2013-01-31 12:16:00,
2013-01-31 05:18:00,45.5,39.4,30.20,NE,49,2.0,5.0,79,0.00,,,0.00,0,WeatherHawk,2013-01-31 12:18:00,
2013-01-31 05:22:00,45.1,39.3,30.20,NE,50,2.0,4.0,80,0.00,,,0.00,0,WeatherHawk,2013-01-31 12:22:00,
2013-01-31 05:23:00,45.1,39.3,30.20,NE,35,2.0,4.0,80,0.00,,,0.00,0,WeatherHawk,2013-01-31 12:23:00,
2013-01-31 05:24:00,45.1,39.3,30.20,NNE,31,2.0,4.0,80,0.00,,,0.00,0,WeatherHawk,2013-01-31 12:24:00,
2013-01-31 05:28:00,45.3,39.5,30.20,NE,53,2.0,3.0,80,0.00,,,0.00,0,WeatherHawk,2013-01-31 12:28:00,
2013-01-31 05:30:00,45.3,39.2,30.20,NE,37,3.0,3.0,79,0.00,,,0.00,1,WeatherHawk,2013-01-31 12:30:00,
2013-01-31 05:34:00,45.9,39.1,30.20,NNE,32,2.0,3.0,77,0.00,,,0.00,0,WeatherHawk,2013-01-31 12:34:00,
2013-01-31 05:36:00,45.9,39.1,30.20,NNE,31,2.0,3.0,77,0.00,,,0.00,0,WeatherHawk,2013-01-31 12:36:00,
2013-01-31 05:37:00,45.9,39.1,30.20,NNE,19,2.0,3.0,77,0.00,,,0.00,0,WeatherHawk,2013-01-31 12:37:00,
2013-01-31 05:38:00,45.9,39.1,30.20,NNE,19,2.0,-999.0,77,0.00,,,0.00,0,WeatherHawk,2013-01-31 12:38:00,
2013-01-31 05:41:00,45.9,38.7,30.20,North,11,3.0,3.0,76,0.00,,,0.00,0,WeatherHawk,2013-01-31 12:41:00,
2013-01-31 05:43:00,45.9,38.7,30.20,North,8,3.0,-999.0,76,0.00,,,0.00,0,WeatherHawk,2013-01-31 12:43:00,
2013-01-31 05:44:00,46.0,38.6,30.20,North,11,3.0,3.0,75,0.00,,,0.00,0,WeatherHawk,2013-01-31 12:44:00,
2013-01-31 05:45:00,46.0,38.6,30.20,North,11,3.0,3.0,75,0.00,,,0.00,0,WeatherHawk,2013-01-31 12:45:00,
2013-01-31 05:48:00,46.0,38.6,30.20,NNE,17,4.0,4.0,75,0.00,,,0.00,1,WeatherHawk,2013-01-31 12:48:00,
2013-01-31 05:49:00,46.0,38.6,30.20,NNE,14,4.0,4.0,75,0.00,,,0.00,0,WeatherHawk,2013-01-31 12:49:00,
2013-01-31 05:50:00,46.0,38.9,30.20,NNE,16,3.0,4.0,76,0.00,,,0.00,0,WeatherHawk,2013-01-31 12:50:00,
2013-01-31 05:53:00,45.9,38.7,30.20,NNE,13,2.0,4.0,76,0.00,,,0.00,0,WeatherHawk,2013-01-31 12:53:00,
2013-01-31 05:54:00,45.9,38.7,30.20,NNE,19,2.0,4.0,76,0.00,,,0.00,0,WeatherHawk,2013-01-31 12:54:00,
2013-01-31 05:56:00,45.7,38.6,30.20,North,356,1.0,4.0,76,0.00,,,0.00,0,WeatherHawk,2013-01-31 12:56:00,
2013-01-31 05:58:00,45.7,38.6,30.20,North,355,1.0,4.0,76,0.00,,,0.00,0,WeatherHawk,2013-01-31 12:58:00,
2013-01-31 05:59:00,45.5,38.4,30.20,WNW,302,0.0,4.0,76,0.00,,,0.00,0,WeatherHawk,2013-01-31 12:59:00,
2013-01-31 06:02:00,45.3,38.2,30.21,NNW,331,1.0,4.0,76,0.00,,,0.00,1,WeatherHawk,2013-01-31 13:02:00,
2013-01-31 06:03:00,45.3,38.2,30.21,NNW,331,1.0,4.0,76,0.00,,,0.00,1,WeatherHawk,2013-01-31 13:03:00,
2013-01-31 06:05:00,45.3,37.9,30.21,West,278,1.0,4.0,75,0.00,,,0.00,0,WeatherHawk,2013-01-31 13:05:00,
2013-01-31 06:08:00,45.5,38.7,30.21,West,268,1.0,-999.0,77,0.00,,,0.00,0,WeatherHawk,2013-01-31 13:08:00,
2013-01-31 06:11:00,45.5,38.4,30.21,NW,315,2.0,2.0,76,0.00,,,0.00,0,WeatherHawk,2013-01-31 13:11:00,
2013-01-31 06:13:00,45.5,38.4,30.21,NNW,329,2.0,2.0,76,0.00,,,0.00,0,WeatherHawk,2013-01-31 13:13:00,
2013-01-31 06:14:00,45.7,38.2,30.21,NW,325,2.0,2.0,75,0.00,,,0.00,0,WeatherHawk,2013-01-31 13:14:00,
2013-01-31 06:18:00,45.7,38.6,30.21,North,349,2.0,2.0,76,0.00,,,0.00,0,WeatherHawk,2013-01-31 13:18:00,
2013-01-31 06:21:00,46.2,38.0,30.21,North,1,3.0,0.0,73,0.00,,,0.00,0,WeatherHawk,2013-01-31 13:21:00,
2013-01-31 06:23:00,46.4,38.2,30.21,North,358,3.0,0.0,73,0.00,,,0.00,0,WeatherHawk,2013-01-31 13:23:00,
2013-01-31 06:26:00,46.8,38.2,30.21,NNE,12,3.0,0.0,72,0.00,,,0.00,0,WeatherHawk,2013-01-31 13:26:00,
2013-01-31 06:27:00,46.9,38.0,30.21,NNE,19,4.0,0.0,71,0.00,,,0.00,0,WeatherHawk,2013-01-31 13:27:00,
2013-01-31 06:28:00,46.9,38.0,30.21,NNE,19,4.0,0.0,71,0.00,,,0.00,0,WeatherHawk,2013-01-31 13:28:00,
2013-01-31 06:31:00,47.3,38.4,30.21,NNE,18,5.0,0.0,71,0.00,,,0.00,0,WeatherHawk,2013-01-31 13:31:00,
2013-01-31 06:33:00,47.5,38.2,30.21,NNE,13,5.0,0.0,70,0.00,,,0.00,0,WeatherHawk,2013-01-31 13:33:00,
2013-01-31 06:35:00,47.3,38.4,30.21,North,11,3.0,0.0,71,0.00,,,0.00,0,WeatherHawk,2013-01-31 13:35:00,
2013-01-31 06:38:00,46.6,38.4,30.21,North,3,3.0,-999.0,73,0.00,,,0.00,0,WeatherHawk,2013-01-31 13:38:00,
2013-01-31 06:39:00,46.4,38.6,30.21,North,349,3.0,5.0,74,0.00,,,0.00,0,WeatherHawk,2013-01-31 13:39:00,
2013-01-31 06:43:00,46.0,38.2,30.21,NNW,345,3.0,5.0,74,0.00,,,0.00,0,WeatherHawk,2013-01-31 13:43:00,
2013-01-31 06:48:00,45.9,38.7,30.21,NW,316,2.0,-999.0,76,0.00,,,0.00,0,WeatherHawk,2013-01-31 13:48:00,
2013-01-31 06:53:00,45.5,38.4,30.21,NNE,20,4.0,4.0,76,0.00,,,0.00,0,WeatherHawk,2013-01-31 13:53:00,
2013-01-31 06:55:00,45.5,38.4,30.21,NNE,29,3.0,3.0,76,0.00,,,0.00,0,WeatherHawk,2013-01-31 13:55:00,
2013-01-31 06:57:00,45.3,38.5,30.21,NNE,15,3.0,3.0,77,0.00,,,0.00,0,WeatherHawk,2013-01-31 13:57:00,
2013-01-31 06:59:00,45.1,38.7,30.21,North,4,3.0,0.0,78,0.00,,,0.00,0,WeatherHawk,2013-01-31 13:59:00,
2013-01-31 07:01:00,45.1,38.4,30.21,North,6,3.0,0.0,77,0.00,,,0.00,0,WeatherHawk,2013-01-31 14:01:00,
2013-01-31 07:02:00,45.1,38.4,30.21,North,357,3.0,0.0,77,0.00,,,0.00,0,WeatherHawk,2013-01-31 14:02:00,
2013-01-31 07:03:00,45.1,38.4,30.21,North,357,4.0,-999.0,77,0.00,,,0.00,0,WeatherHawk,2013-01-31 14:03:00,
2013-01-31 07:06:00,45.3,38.9,30.21,NW,325,4.0,0.0,78,0.00,,,0.00,0,WeatherHawk,2013-01-31 14:06:00,
2013-01-31 07:08:00,45.1,38.7,30.21,NW,306,3.0,0.0,78,0.00,,,0.00,0,WeatherHawk,2013-01-31 14:08:00,
2013-01-31 07:10:00,44.8,39.0,30.21,West,267,3.0,0.0,80,0.00,,,0.00,0,WeatherHawk,2013-01-31 14:10:00,
2013-01-31 07:12:00,44.1,38.9,30.21,West,279,3.0,0.0,82,0.00,,,0.00,1,WeatherHawk,2013-01-31 14:12:00,
2013-01-31 07:13:00,44.1,38.9,30.21,West,279,3.0,0.0,82,0.00,,,0.00,1,WeatherHawk,2013-01-31 14:13:00,
2013-01-31 07:16:00,43.5,38.7,30.21,WNW,284,3.0,0.0,83,0.00,,,0.00,1,WeatherHawk,2013-01-31 14:16:00,
2013-01-31 07:18:00,43.5,38.4,30.21,NNW,341,3.0,0.0,82,0.00,,,0.00,0,WeatherHawk,2013-01-31 14:18:00,
2013-01-31 07:19:00,43.9,38.4,30.21,NNW,341,3.0,4.0,81,0.00,,,0.00,0,WeatherHawk,2013-01-31 14:19:00,
2013-01-31 07:22:00,44.2,38.8,30.21,NW,323,3.0,4.0,81,0.00,,,0.00,0,WeatherHawk,2013-01-31 14:22:00,
2013-01-31 07:23:00,44.2,38.8,30.21,NW,323,3.0,4.0,81,0.00,,,0.00,0,WeatherHawk,2013-01-31 14:23:00,
2013-01-31 07:26:00,44.1,38.6,30.21,West,266,2.0,4.0,81,0.00,,,0.00,2,WeatherHawk,2013-01-31 14:26:00,
2013-01-31 07:28:00,44.1,38.6,30.21,West,261,3.0,-999.0,81,0.00,,,0.00,3,WeatherHawk,2013-01-31 14:28:00,
2013-01-31 07:33:00,43.0,38.5,30.20,West,261,2.0,0.0,84,0.00,,,0.00,3,WeatherHawk,2013-01-31 14:33:00,
2013-01-31 07:34:00,43.0,38.5,30.20,West,276,1.0,0.0,84,0.00,,,0.00,5,WeatherHawk,2013-01-31 14:34:00,
2013-01-31 07:35:00,43.0,38.5,30.20,WNW,289,1.0,0.0,84,0.00,,,0.00,0,WeatherHawk,2013-01-31 14:35:00,
2013-01-31 07:38:00,43.2,38.4,30.20,NNW,328,1.0,0.0,83,0.00,,,0.00,7,WeatherHawk,2013-01-31 14:38:00,
2013-01-31 07:40:00,43.3,38.5,30.20,NW,305,1.0,3.0,83,0.00,,,0.00,9,WeatherHawk,2013-01-31 14:40:00,
2013-01-31 07:42:00,43.3,38.5,30.20,NW,312,2.0,3.0,83,0.00,,,0.00,14,WeatherHawk,2013-01-31 14:42:00,
2013-01-31 07:46:00,43.5,38.4,30.21,WNW,282,2.0,3.0,82,0.00,,,0.00,17,WeatherHawk,2013-01-31 14:46:00,
2013-01-31 07:47:00,43.5,38.4,30.21,WSW,249,2.0,3.0,82,0.00,,,0.00,20,WeatherHawk,2013-01-31 14:47:00,
2013-01-31 07:51:00,43.2,38.4,30.21,NNW,338,1.0,0.0,83,0.00,,,0.00,24,WeatherHawk,2013-01-31 14:51:00,
2013-01-31 07:53:00,43.2,38.4,30.21,NNE,12,2.0,0.0,83,0.00,,,0.00,28,WeatherHawk,2013-01-31 14:53:00,
2013-01-31 07:54:00,43.2,38.4,30.21,NNE,31,2.0,0.0,83,0.00,,,0.00,29,WeatherHawk,2013-01-31 14:54:00,
2013-01-31 07:58:00,44.1,38.6,30.21,North,6,3.0,-999.0,81,0.00,,,0.00,35,WeatherHawk,2013-01-31 14:58:00,
2013-01-31 08:00:00,44.6,38.5,30.21,NNW,327,3.0,0.0,79,0.00,,,0.00,46,WeatherHawk,2013-01-31 15:00:00,
2013-01-31 08:01:00,44.6,38.5,30.21,NW,324,2.0,0.0,79,0.00,,,0.00,54,WeatherHawk,2013-01-31 15:01:00,
2013-01-31 08:04:00,44.2,38.5,30.21,NNW,341,2.0,0.0,80,0.00,,,0.00,49,WeatherHawk,2013-01-31 15:04:00,
2013-01-31 08:06:00,44.1,38.6,30.21,NNE,17,2.0,0.0,81,0.00,,,0.00,54,WeatherHawk,2013-01-31 15:06:00,
2013-01-31 08:07:00,44.1,38.6,30.21,NNW,329,3.0,0.0,81,0.00,,,0.00,60,WeatherHawk,2013-01-31 15:07:00,
2013-01-31 08:11:00,43.7,38.3,30.21,NW,319,1.0,4.0,81,0.00,,,0.00,77,WeatherHawk,2013-01-31 15:11:00,
2013-01-31 08:13:00,43.5,38.4,30.21,North,352,2.0,4.0,82,0.00,,,0.00,78,WeatherHawk,2013-01-31 15:13:00,
2013-01-31 08:18:00,43.5,39.0,30.22,NNE,22,2.0,4.0,84,0.00,,,0.00,93,WeatherHawk,2013-01-31 15:18:00,
2013-01-31 08:19:00,43.7,38.6,30.22,NNE,17,2.0,0.0,82,0.00,,,0.00,84,WeatherHawk,2013-01-31 15:19:00,
2013-01-31 08:23:00,44.1,38.9,30.22,NE,45,2.0,0.0,82,0.00,,,0.00,76,WeatherHawk,2013-01-31 15:23:00,
2013-01-31 08:24:00,44.2,38.8,30.22,NE,52,2.0,0.0,81,0.00,,,0.00,105,WeatherHawk,2013-01-31 15:24:00,
2013-01-31 08:26:00,44.4,38.6,30.22,NE,45,2.0,0.0,80,0.00,,,0.00,105,WeatherHawk,2013-01-31 15:26:00,
2013-01-31 08:28:00,44.4,38.6,30.22,NE,45,2.0,0.0,80,0.00,,,0.00,105,WeatherHawk,2013-01-31 15:28:00,
2013-01-31 08:30:00,45.0,39.2,30.22,NE,35,3.0,0.0,80,0.00,,,0.00,98,WeatherHawk,2013-01-31 15:30:00,
2013-01-31 08:33:00,45.3,39.2,30.22,NNE,25,2.0,-999.0,79,0.00,,,0.00,105,WeatherHawk,2013-01-31 15:33:00,
2013-01-31 08:36:00,45.9,39.1,30.23,NNW,344,1.0,0.0,77,0.00,,,0.00,134,WeatherHawk,2013-01-31 15:36:00,
2013-01-31 08:38:00,46.0,38.9,30.23,North,0,1.0,0.0,76,0.00,,,0.00,128,WeatherHawk,2013-01-31 15:38:00,
2013-01-31 08:42:00,46.4,38.9,30.23,North,6,2.0,0.0,75,0.00,,,0.00,170,WeatherHawk,2013-01-31 15:42:00,
2013-01-31 08:44:00,46.8,38.9,30.23,NNE,12,3.0,0.0,74,0.00,,,0.00,187,WeatherHawk,2013-01-31 15:44:00,
2013-01-31 08:46:00,47.3,39.1,30.23,North,9,3.0,0.0,73,0.00,,,0.00,206,WeatherHawk,2013-01-31 15:46:00,
2013-01-31 08:47:00,47.5,38.9,30.23,North,10,3.0,0.0,72,0.00,,,0.00,215,WeatherHawk,2013-01-31 15:47:00,
2013-01-31 08:48:00,47.5,38.9,30.23,North,10,3.0,-999.0,72,0.00,,,0.00,215,WeatherHawk,2013-01-31 15:48:00,
2013-01-31 08:52:00,48.6,38.9,30.23,North,359,3.0,0.0,69,0.00,,,0.00,197,WeatherHawk,2013-01-31 15:52:00,
2013-01-31 08:53:00,48.6,38.9,30.23,North,359,3.0,0.0,69,0.00,,,0.00,197,WeatherHawk,2013-01-31 15:53:00,
2013-01-31 08:54:00,48.7,39.8,30.23,North,5,2.0,0.0,71,0.00,,,0.00,213,WeatherHawk,2013-01-31 15:54:00,
2013-01-31 08:58:00,49.1,39.4,30.24,North,352,3.0,0.0,69,0.00,,,0.00,181,WeatherHawk,2013-01-31 15:58:00,
2013-01-31 08:59:00,49.3,39.2,30.24,NNW,333,3.0,0.0,68,0.00,,,0.00,174,WeatherHawk,2013-01-31 15:59:00,
2013-01-31 09:03:00,49.3,39.5,30.24,North,355,2.0,-999.0,69,0.00,,,0.00,236,WeatherHawk,2013-01-31 16:03:00,
2013-01-31 09:04:00,49.5,39.3,30.24,North,350,3.0,0.0,68,0.00,,,0.00,174,WeatherHawk,2013-01-31 16:04:00,
2013-01-31 09:05:00,49.5,39.7,30.24,NNW,343,2.0,0.0,69,0.00,,,0.00,188,WeatherHawk,2013-01-31 16:05:00,
2013-01-31 09:08:00,49.5,39.3,30.24,NNW,342,2.0,0.0,68,0.00,,,0.00,241,WeatherHawk,2013-01-31 16:08:00,
2013-01-31 09:09:00,49.6,39.9,30.24,NNW,341,2.0,4.0,69,0.00,,,0.00,259,WeatherHawk,2013-01-31 16:09:00,
2013-01-31 09:10:00,49.6,39.9,30.24,North,352,2.0,4.0,69,0.00,,,0.00,283,WeatherHawk,2013-01-31 16:10:00,
2013-01-31 09:13:00,50.0,39.5,30.24,NNE,14,3.0,4.0,67,0.00,,,0.00,306,WeatherHawk,2013-01-31 16:13:00,
2013-01-31 09:14:00,50.0,39.1,30.24,NNE,20,3.0,4.0,66,0.00,,,0.00,307,WeatherHawk,2013-01-31 16:14:00,
2013-01-31 09:18:00,50.5,38.8,30.25,North,2,4.0,0.0,64,0.00,,,0.00,320,WeatherHawk,2013-01-31 16:18:00,
2013-01-31 09:21:00,50.7,38.6,30.25,North,349,4.0,0.0,63,0.00,,,0.00,332,WeatherHawk,2013-01-31 16:21:00,
2013-01-31 09:22:00,51.1,38.9,30.25,North,356,5.0,0.0,63,0.00,,,0.00,349,WeatherHawk,2013-01-31 16:22:00,
2013-01-31 09:26:00,51.8,38.8,30.25,North,352,4.0,0.0,61,0.00,,,0.00,364,WeatherHawk,2013-01-31 16:26:00,
2013-01-31 09:27:00,51.8,38.8,30.25,North,358,5.0,0.0,61,0.00,,,0.00,374,WeatherHawk,2013-01-31 16:27:00,
2013-01-31 09:28:00,51.8,38.8,30.25,North,358,5.0,-999.0,61,0.00,,,0.00,374,WeatherHawk,2013-01-31 16:28:00,
2013-01-31 09:31:00,52.3,38.4,30.25,North,358,6.0,6.0,59,0.00,,,0.00,330,WeatherHawk,2013-01-31 16:31:00,
2013-01-31 09:33:00,52.3,38.4,30.25,North,2,6.0,6.0,59,0.00,,,0.00,345,WeatherHawk,2013-01-31 16:33:00,
2013-01-31 09:38:00,52.5,39.0,30.25,North,6,6.0,-999.0,60,0.00,,,0.00,341,WeatherHawk,2013-01-31 16:38:00,
2013-01-31 09:41:00,52.9,39.4,30.24,NNE,13,9.0,0.0,60,0.00,,,0.00,356,WeatherHawk,2013-01-31 16:41:00,
2013-01-31 09:42:00,53.2,38.4,30.24,North,9,11.0,0.0,57,0.00,,,0.00,388,WeatherHawk,2013-01-31 16:42:00,
2013-01-31 09:45:00,53.2,38.8,30.24,North,7,10.0,0.0,58,0.00,,,0.00,364,WeatherHawk,2013-01-31 16:45:00,
2013-01-31 09:48:00,53.2,39.7,30.24,North,9,9.0,-999.0,60,0.00,,,0.00,302,WeatherHawk,2013-01-31 16:48:00,
2013-01-31 09:50:00,53.1,39.1,30.24,North,10,8.0,0.0,59,0.00,,,0.00,331,WeatherHawk,2013-01-31 16:50:00,
2013-01-31 09:52:00,53.2,39.3,30.24,NNE,12,8.0,0.0,59,0.00,,,0.00,324,WeatherHawk,2013-01-31 16:52:00,
2013-01-31 09:53:00,53.2,39.3,30.24,NNE,12,8.0,-999.0,59,0.00,,,0.00,324,WeatherHawk,2013-01-31 16:53:00,
2013-01-31 09:56:00,53.6,39.2,30.25,NNE,21,7.0,0.0,58,0.00,,,0.00,341,WeatherHawk,2013-01-31 16:56:00,
2013-01-31 09:58:00,53.8,39.4,30.25,NNE,23,8.0,-999.0,58,0.00,,,0.00,347,WeatherHawk,2013-01-31 16:58:00,
2013-01-31 10:00:00,54.1,39.7,30.25,NNE,20,9.0,0.0,58,0.00,,,0.00,298,WeatherHawk,2013-01-31 17:00:00,
2013-01-31 10:02:00,54.3,39.9,30.25,NNE,17,9.0,0.0,58,0.00,,,0.00,309,WeatherHawk,2013-01-31 17:02:00,
2013-01-31 10:03:00,54.3,39.9,30.25,NNE,17,9.0,0.0,58,0.00,,,0.00,309,WeatherHawk,2013-01-31 17:03:00,
2013-01-31 10:05:00,54.5,40.0,30.24,NNE,20,9.0,0.0,58,0.00,,,0.00,316,WeatherHawk,2013-01-31 17:05:00,
2013-01-31 10:08:00,54.7,40.2,30.24,NNE,21,9.0,0.0,58,0.00,,,0.00,327,WeatherHawk,2013-01-31 17:08:00,
2013-01-31 10:12:00,55.2,40.7,30.24,North,3,9.0,0.0,58,0.00,,,0.00,374,WeatherHawk,2013-01-31 17:12:00,
2013-01-31 10:13:00,55.2,40.7,30.24,North,3,9.0,0.0,58,0.00,,,0.00,374,WeatherHawk,2013-01-31 17:13:00,
2013-01-31 10:16:00,55.8,39.8,30.24,North,6,9.0,0.0,55,0.00,,,0.00,378,WeatherHawk,2013-01-31 17:16:00,
2013-01-31 10:18:00,56.1,39.7,30.24,North,7,11.0,0.0,54,0.00,,,0.00,393,WeatherHawk,2013-01-31 17:18:00,
2013-01-31 10:19:00,56.5,40.0,30.24,North,6,10.0,0.0,54,0.00,,,0.00,394,WeatherHawk,2013-01-31 17:19:00,
2013-01-31 10:21:00,56.7,39.2,30.24,North,3,11.0,0.0,52,0.00,,,0.00,351,WeatherHawk,2013-01-31 17:21:00,
2013-01-31 10:22:00,56.8,39.9,30.25,North,6,9.0,0.0,53,0.00,,,0.00,369,WeatherHawk,2013-01-31 17:22:00,
2013-01-31 10:27:00,57.4,39.4,30.25,NNE,18,10.0,0.0,51,0.00,,,0.00,421,WeatherHawk,2013-01-31 17:27:00,
2013-01-31 10:28:00,57.4,39.4,30.25,NNE,18,10.0,-999.0,51,0.00,,,0.00,421,WeatherHawk,2013-01-31 17:28:00,
2013-01-31 10:29:00,57.4,39.9,30.25,North,6,8.0,0.0,52,0.00,,,0.00,352,WeatherHawk,2013-01-31 17:29:00,
2013-01-31 10:33:00,57.7,38.7,30.25,North,354,14.0,0.0,49,0.00,,,0.00,353,WeatherHawk,2013-01-31 17:33:00,
2013-01-31 10:36:00,58.1,39.6,30.25,North,0,7.0,0.0,50,0.00,,,0.00,472,WeatherHawk,2013-01-31 17:36:00,
2013-01-31 10:38:00,58.3,39.7,30.25,North,1,9.0,0.0,50,0.00,,,0.00,523,WeatherHawk,2013-01-31 17:38:00,
2013-01-31 10:39:00,58.5,38.8,30.25,North,3,9.0,0.0,48,0.00,,,0.00,415,WeatherHawk,2013-01-31 17:39:00,
2013-01-31 10:43:00,58.5,38.3,30.25,North,1,10.0,0.0,47,0.00,,,0.00,456,WeatherHawk,2013-01-31 17:43:00,
2013-01-31 10:47:00,58.6,39.0,30.25,NNE,12,11.0,0.0,48,0.00,,,0.00,540,WeatherHawk,2013-01-31 17:47:00,
2013-01-31 10:48:00,58.6,39.0,30.25,NNE,12,11.0,-999.0,48,0.00,,,0.00,540,WeatherHawk,2013-01-31 17:48:00,
2013-01-31 10:51:00,59.0,39.3,30.25,North,11,11.0,0.0,48,0.00,,,0.00,454,WeatherHawk,2013-01-31 17:51:00,
2013-01-31 10:52:00,59.0,39.3,30.25,NNE,17,11.0,0.0,48,0.00,,,0.00,456,WeatherHawk,2013-01-31 17:52:00,
2013-01-31 10:53:00,59.0,38.8,30.25,North,10,11.0,0.0,47,0.00,,,0.00,544,WeatherHawk,2013-01-31 17:53:00,
2013-01-31 10:56:00,59.0,38.8,30.24,NNE,13,13.0,0.0,47,0.00,,,0.00,381,WeatherHawk,2013-01-31 17:56:00,
2013-01-31 10:57:00,59.0,38.8,30.24,North,6,13.0,0.0,47,0.00,,,0.00,399,WeatherHawk,2013-01-31 17:57:00,
2013-01-31 11:00:00,59.0,39.3,30.24,NNE,14,12.0,0.0,48,0.00,,,0.00,549,WeatherHawk,2013-01-31 18:00:00,
2013-01-31 11:03:00,59.4,38.6,30.24,NNE,13,12.0,-999.0,46,0.00,,,0.00,544,WeatherHawk,2013-01-31 18:03:00,
2013-01-31 11:04:00,59.5,39.3,30.24,NNE,21,13.0,0.0,47,0.00,,,0.00,391,WeatherHawk,2013-01-31 18:04:00,
2013-01-31 11:07:00,59.9,38.5,30.23,NNE,22,13.0,0.0,45,0.00,,,0.00,564,WeatherHawk,2013-01-31 18:07:00,
2013-01-31 11:08:00,59.9,38.5,30.23,NNE,22,13.0,0.0,45,0.00,,,0.00,564,WeatherHawk,2013-01-31 18:08:00,
2013-01-31 11:10:00,59.9,39.1,30.23,North,10,12.0,0.0,46,0.00,,,0.00,522,WeatherHawk,2013-01-31 18:10:00,
2013-01-31 11:13:00,60.1,38.7,30.23,NNE,13,12.0,0.0,45,0.00,,,0.00,553,WeatherHawk,2013-01-31 18:13:00,
2013-01-31 11:15:00,60.4,39.6,30.23,NNE,25,10.0,0.0,46,0.00,,,0.00,531,WeatherHawk,2013-01-31 18:15:00,
2013-01-31 11:18:00,60.4,38.4,30.23,NNE,22,11.0,0.0,44,0.00,,,0.00,480,WeatherHawk,2013-01-31 18:18:00,
2013-01-31 11:23:00,61.0,39.5,30.23,NNE,19,10.0,15.0,45,0.00,,,0.00,621,WeatherHawk,2013-01-31 18:23:00,
2013-01-31 11:24:00,61.2,38.5,30.23,NNE,19,11.0,15.0,43,0.00,,,0.00,648,WeatherHawk,2013-01-31 18:24:00,
2013-01-31 11:26:00,61.3,39.2,30.23,NNE,29,11.0,15.0,44,0.00,,,0.00,627,WeatherHawk,2013-01-31 18:26:00,
2013-01-31 11:28:00,61.3,39.2,30.23,NE,38,10.0,-999.0,44,0.00,,,0.00,677,WeatherHawk,2013-01-31 18:28:00,
2013-01-31 11:31:00,61.0,40.6,30.23,NNE,26,7.0,15.0,47,0.00,,,0.00,616,WeatherHawk,2013-01-31 18:31:00,
2013-01-31 11:33:00,61.0,40.1,30.23,NE,34,11.0,15.0,46,0.00,,,0.00,568,WeatherHawk,2013-01-31 18:33:00,
2013-01-31 11:36:00,61.0,40.1,30.23,NE,36,11.0,15.0,46,0.00,,,0.00,575,WeatherHawk,2013-01-31 18:36:00,
2013-01-31 11:40:00,61.0,40.6,30.23,NNE,33,10.0,0.0,47,0.00,,,0.00,699,WeatherHawk,2013-01-31 18:40:00,
2013-01-31 11:42:00,61.0,40.1,30.23,NNE,29,9.0,0.0,46,0.00,,,0.00,662,WeatherHawk,2013-01-31 18:42:00,
2013-01-31 11:43:00,61.0,40.1,30.23,NE,44,10.0,0.0,46,0.00,,,0.00,688,WeatherHawk,2013-01-31 18:43:00,
2013-01-31 11:46:00,61.5,40.0,30.22,NNE,29,12.0,0.0,45,0.00,,,0.00,540,WeatherHawk,2013-01-31 18:46:00,
2013-01-31 11:48:00,61.3,40.4,30.22,NE,34,9.0,0.0,46,0.00,,,0.00,689,WeatherHawk,2013-01-31 18:48:00,
2013-01-31 11:50:00,61.5,40.0,30.22,North,11,11.0,0.0,45,0.00,,,0.00,691,WeatherHawk,2013-01-31 18:50:00,
2013-01-31 11:52:00,61.7,39.6,30.23,NNE,24,9.0,0.0,44,0.00,,,0.00,592,WeatherHawk,2013-01-31 18:52:00,
2013-01-31 11:53:00,61.7,39.6,30.23,NNE,24,9.0,0.0,44,0.00,,,0.00,592,WeatherHawk,2013-01-31 18:53:00,
2013-01-31 11:58:00,61.7,39.6,30.23,NNE,26,10.0,0.0,44,0.00,,,0.00,378,WeatherHawk,2013-01-31 18:58:00,
2013-01-31 12:04:00,62.2,39.5,30.22,NNE,17,11.0,0.0,43,0.00,,,0.00,625,WeatherHawk,2013-01-31 19:04:00,
2013-01-31 12:06:00,62.2,39.5,30.22,NNE,13,11.0,0.0,43,0.00,,,0.00,640,WeatherHawk,2013-01-31 19:06:00,
2013-01-31 12:08:00,62.2,38.9,30.22,NNE,28,9.0,0.0,42,0.00,,,0.00,657,WeatherHawk,2013-01-31 19:08:00,
2013-01-31 12:11:00,62.4,39.0,30.22,NNE,16,8.0,13.0,42,0.00,,,0.00,672,WeatherHawk,2013-01-31 19:11:00,
2013-01-31 12:13:00,62.6,39.2,30.22,NNE,21,8.0,13.0,42,0.00,,,0.00,675,WeatherHawk,2013-01-31 19:13:00,
2013-01-31 12:15:00,62.6,39.2,30.22,NNE,20,10.0,13.0,42,0.00,,,0.00,619,WeatherHawk,2013-01-31 19:15:00,
2013-01-31 12:18:00,62.6,39.2,30.22,North,355,10.0,13.0,42,0.00,,,0.00,595,WeatherHawk,2013-01-31 19:18:00,
2013-01-31 12:20:00,62.6,39.8,30.22,NNE,15,9.0,0.0,43,0.00,,,0.00,559,WeatherHawk,2013-01-31 19:20:00,
2013-01-31 12:23:00,62.6,39.8,30.22,NNE,26,9.0,-999.0,43,0.00,,,0.00,582,WeatherHawk,2013-01-31 19:23:00,
2013-01-31 12:27:00,63.0,39.5,30.22,NNE,12,9.0,0.0,42,0.00,,,0.00,734,WeatherHawk,2013-01-31 19:27:00,
2013-01-31 12:28:00,63.0,39.5,30.22,NNE,12,9.0,0.0,42,0.00,,,0.00,734,WeatherHawk,2013-01-31 19:28:00,
2013-01-31 12:29:00,63.1,39.1,30.22,NNE,18,6.0,0.0,41,0.00,,,0.00,733,WeatherHawk,2013-01-31 19:29:00,
2013-01-31 12:33:00,63.3,39.8,30.22,NNW,345,4.0,-999.0,42,0.00,,,0.00,673,WeatherHawk,2013-01-31 19:33:00,
2013-01-31 12:35:00,63.9,37.8,30.22,North,2,9.0,0.0,38,0.00,,,0.00,704,WeatherHawk,2013-01-31 19:35:00,
2013-01-31 12:36:00,64.0,37.9,30.22,North,351,8.0,0.0,38,0.00,,,0.00,729,WeatherHawk,2013-01-31 19:36:00,
2013-01-31 12:38:00,64.0,37.9,30.22,North,351,8.0,0.0,38,0.00,,,0.00,729,WeatherHawk,2013-01-31 19:38:00,
2013-01-31 12:42:00,64.0,37.9,30.21,North,349,10.0,0.0,38,0.00,,,0.00,712,WeatherHawk,2013-01-31 19:42:00,
2013-01-31 12:43:00,64.0,37.9,30.21,NNW,337,9.0,0.0,38,0.00,,,0.00,673,WeatherHawk,2013-01-31 19:43:00,
2013-01-31 12:45:00,64.0,37.9,30.21,NNW,332,9.0,0.0,38,0.00,,,0.00,716,WeatherHawk,2013-01-31 19:45:00,
2013-01-31 12:48:00,64.2,38.1,30.21,NNE,14,6.0,-999.0,38,0.00,,,0.00,676,WeatherHawk,2013-01-31 19:48:00,
2013-01-31 12:49:00,64.4,37.6,30.20,North,351,8.0,0.0,37,0.00,,,0.00,702,WeatherHawk,2013-01-31 19:49:00,
2013-01-31 12:51:00,64.6,36.3,30.20,NNE,22,7.0,12.0,35,0.00,,,0.00,655,WeatherHawk,2013-01-31 19:51:00,
2013-01-31 12:53:00,64.8,36.5,30.20,North,351,8.0,12.0,35,0.00,,,0.00,550,WeatherHawk,2013-01-31 19:53:00,
2013-01-31 12:55:00,64.8,36.5,30.20,NNE,12,12.0,12.0,35,0.00,,,0.00,642,WeatherHawk,2013-01-31 19:55:00,
2013-01-31 12:57:00,64.4,37.6,30.20,North,3,7.0,12.0,37,0.00,,,0.00,585,WeatherHawk,2013-01-31 19:57:00,
2013-01-31 12:59:00,64.4,36.1,30.20,North,358,8.0,0.0,35,0.00,,,0.00,629,WeatherHawk,2013-01-31 19:59:00,
2013-01-31 13:00:00,64.8,36.5,30.20,North,359,12.0,0.0,35,0.00,,,0.00,642,WeatherHawk,2013-01-31 20:00:00,
2013-01-31 13:03:00,64.9,36.6,30.20,NNE,21,9.0,0.0,35,0.00,,,0.00,617,WeatherHawk,2013-01-31 20:03:00,
2013-01-31 13:08:00,65.5,36.4,30.19,North,359,12.0,-999.0,34,0.00,,,0.00,671,WeatherHawk,2013-01-31 20:08:00,
2013-01-31 13:13:00,65.8,36.7,30.19,North,4,10.0,0.0,34,0.00,,,0.00,628,WeatherHawk,2013-01-31 20:13:00,
2013-01-31 13:14:00,65.7,36.5,30.19,NNE,28,10.0,0.0,34,0.00,,,0.00,714,WeatherHawk,2013-01-31 20:14:00,
2013-01-31 13:18:00,66.0,36.8,30.19,NE,48,9.0,0.0,34,0.00,,,0.00,730,WeatherHawk,2013-01-31 20:18:00,
2013-01-31 13:20:00,66.0,36.1,30.19,NE,41,7.0,0.0,33,0.00,,,0.00,710,WeatherHawk,2013-01-31 20:20:00,
2013-01-31 13:23:00,66.6,35.8,30.18,NNE,29,11.0,-999.0,32,0.00,,,0.00,703,WeatherHawk,2013-01-31 20:23:00,
2013-01-31 13:26:00,66.6,35.0,30.18,NNE,20,12.0,0.0,31,0.00,,,0.00,673,WeatherHawk,2013-01-31 20:26:00,
2013-01-31 13:28:00,66.7,35.1,30.18,North,11,12.0,-999.0,31,0.00,,,0.00,604,WeatherHawk,2013-01-31 20:28:00,
2013-01-31 13:31:00,66.9,35.3,30.18,North,2,12.0,0.0,31,0.00,,,0.00,627,WeatherHawk,2013-01-31 20:31:00,
2013-01-31 13:33:00,66.9,34.5,30.17,North,356,14.0,0.0,30,0.00,,,0.00,601,WeatherHawk,2013-01-31 20:33:00,
2013-01-31 13:34:00,66.9,35.3,30.17,North,3,13.0,0.0,31,0.00,,,0.00,558,WeatherHawk,2013-01-31 20:34:00,
2013-01-31 13:36:00,67.1,35.4,30.17,North,4,14.0,0.0,31,0.00,,,0.00,564,WeatherHawk,2013-01-31 20:36:00,
2013-01-31 13:39:00,67.1,34.6,30.17,North,4,16.0,0.0,30,0.00,,,0.00,698,WeatherHawk,2013-01-31 20:39:00,
2013-01-31 13:41:00,67.3,34.8,30.17,North,9,16.0,0.0,30,0.00,,,0.00,700,WeatherHawk,2013-01-31 20:41:00,
2013-01-31 13:42:00,67.5,34.9,30.17,NNE,15,16.0,0.0,30,0.00,,,0.00,707,WeatherHawk,2013-01-31 20:42:00,
2013-01-31 13:45:00,67.6,34.2,30.16,NNE,15,16.0,0.0,29,0.00,,,0.00,699,WeatherHawk,2013-01-31 20:45:00,
2013-01-31 13:46:00,67.5,34.9,30.17,North,7,13.0,0.0,30,0.00,,,0.00,655,WeatherHawk,2013-01-31 20:46:00,
2013-01-31 13:47:00,67.6,34.2,30.17,North,9,16.0,-999.0,29,0.00,,,0.00,695,WeatherHawk,2013-01-31 20:47:00,
2013-01-31 13:50:00,67.6,35.1,30.16,NNE,17,17.0,0.0,30,0.00,,,0.00,697,WeatherHawk,2013-01-31 20:50:00,
2013-01-31 13:52:00,67.8,34.4,30.16,NNE,12,15.0,0.0,29,0.00,,,0.00,685,WeatherHawk,2013-01-31 20:52:00,
2013-01-31 13:53:00,67.8,33.5,30.16,NNE,15,19.0,0.0,28,0.00,,,0.00,684,WeatherHawk,2013-01-31 20:53:00,
2013-01-31 13:57:00,68.0,35.4,30.16,NNE,22,14.0,0.0,30,0.00,,,0.00,685,WeatherHawk,2013-01-31 20:57:00,
2013-01-31 13:59:00,68.0,35.4,30.16,North,4,12.0,0.0,30,0.00,,,0.00,694,WeatherHawk,2013-01-31 20:59:00,
2013-01-31 14:02:00,68.2,34.7,30.16,NNW,348,13.0,-999.0,29,0.00,,,0.00,687,WeatherHawk,2013-01-31 21:02:00,
2013-01-31 14:03:00,68.4,34.0,30.16,North,2,19.0,0.0,28,0.00,,,0.00,679,WeatherHawk,2013-01-31 21:03:00,
2013-01-31 14:05:00,68.2,33.8,30.16,North,5,16.0,0.0,28,0.00,,,0.00,677,WeatherHawk,2013-01-31 21:05:00,
2013-01-31 14:07:00,68.0,34.6,30.16,North,0,13.0,-999.0,29,0.00,,,0.00,647,WeatherHawk,2013-01-31 21:07:00,
2013-01-31 14:11:00,68.2,34.7,30.15,North,359,18.0,0.0,29,0.00,,,0.00,557,WeatherHawk,2013-01-31 21:11:00,
2013-01-31 14:12:00,68.0,34.6,30.15,North,357,11.0,0.0,29,0.00,,,0.00,662,WeatherHawk,2013-01-31 21:12:00,
2013-01-31 14:17:00,68.2,34.7,30.15,North,1,18.0,0.0,29,0.00,,,0.00,588,WeatherHawk,2013-01-31 21:17:00,
2013-01-31 14:21:00,68.2,34.7,30.15,North,352,13.0,0.0,29,0.00,,,0.00,562,WeatherHawk,2013-01-31 21:21:00,
2013-01-31 14:22:00,68.2,34.7,30.15,NNE,17,16.0,0.0,29,0.00,,,0.00,472,WeatherHawk,2013-01-31 21:22:00,
2013-01-31 14:23:00,68.2,34.7,30.15,North,7,14.0,0.0,29,0.00,,,0.00,469,WeatherHawk,2013-01-31 21:23:00,
2013-01-31 14:24:00,68.0,34.6,30.15,North,10,15.0,0.0,29,0.00,,,0.00,440,WeatherHawk,2013-01-31 21:24:00,
2013-01-31 14:27:00,68.0,33.7,30.15,North,5,13.0,0.0,28,0.00,,,0.00,570,WeatherHawk,2013-01-31 21:27:00,
2013-01-31 14:29:00,68.0,35.4,30.15,North,358,13.0,0.0,30,0.00,,,0.00,600,WeatherHawk,2013-01-31 21:29:00,
2013-01-31 14:30:00,68.2,35.6,30.15,North,359,12.0,0.0,30,0.00,,,0.00,633,WeatherHawk,2013-01-31 21:30:00,
2013-01-31 14:33:00,68.5,35.0,30.15,North,8,16.0,0.0,29,0.00,,,0.00,611,WeatherHawk,2013-01-31 21:33:00,
2013-01-31 14:34:00,68.4,34.9,30.15,North,11,16.0,0.0,29,0.00,,,0.00,647,WeatherHawk,2013-01-31 21:34:00,
2013-01-31 14:37:00,68.4,34.9,30.15,North,7,16.0,-999.0,29,0.00,,,0.00,647,WeatherHawk,2013-01-31 21:37:00,
2013-01-31 14:38:00,68.4,34.9,30.15,North,0,13.0,0.0,29,0.00,,,0.00,622,WeatherHawk,2013-01-31 21:38:00,
2013-01-31 14:42:00,68.4,34.9,30.15,North,11,11.0,-999.0,29,0.00,,,0.00,586,WeatherHawk,2013-01-31 21:42:00,
2013-01-31 14:44:00,68.7,35.2,30.14,NNE,12,16.0,0.0,29,0.00,,,0.00,591,WeatherHawk,2013-01-31 21:44:00,
2013-01-31 14:47:00,68.9,34.4,30.15,North,2,16.0,0.0,28,0.00,,,0.00,603,WeatherHawk,2013-01-31 21:47:00,
2013-01-31 14:48:00,68.7,34.3,30.15,North,355,15.0,0.0,28,0.00,,,0.00,583,WeatherHawk,2013-01-31 21:48:00,
2013-01-31 14:50:00,68.7,35.2,30.15,North,11,13.0,17.0,29,0.00,,,0.00,617,WeatherHawk,2013-01-31 21:50:00,
2013-01-31 14:53:00,68.7,34.3,30.14,North,0,12.0,17.0,28,0.00,,,0.00,604,WeatherHawk,2013-01-31 21:53:00,
2013-01-31 14:54:00,68.9,34.4,30.14,North,357,15.0,17.0,28,0.00,,,0.00,591,WeatherHawk,2013-01-31 21:54:00,
2013-01-31 14:56:00,68.9,36.2,30.14,North,6,11.0,17.0,30,0.00,,,0.00,580,WeatherHawk,2013-01-31 21:56:00,
2013-01-31 14:58:00,69.1,34.6,30.14,North,0,12.0,17.0,28,0.00,,,0.00,541,WeatherHawk,2013-01-31 21:58:00,
2013-01-31 14:59:00,69.1,35.5,30.14,NNW,348,15.0,18.0,29,0.00,,,0.00,565,WeatherHawk,2013-01-31 21:59:00,
2013-01-31 15:04:00,69.3,34.8,30.14,North,355,16.0,18.0,28,0.00,,,0.00,591,WeatherHawk,2013-01-31 22:04:00,
2013-01-31 15:08:00,69.4,34.9,30.14,North,356,14.0,18.0,28,0.00,,,0.00,526,WeatherHawk,2013-01-31 22:08:00,
2013-01-31 15:10:00,69.3,34.8,30.14,North,350,17.0,17.0,28,0.00,,,0.00,563,WeatherHawk,2013-01-31 22:10:00,
2013-01-31 15:12:00,69.3,34.8,30.13,North,359,14.0,17.0,28,0.00,,,0.00,572,WeatherHawk,2013-01-31 22:12:00,
2013-01-31 15:13:00,69.3,34.8,30.14,North,0,14.0,17.0,28,0.00,,,0.00,568,WeatherHawk,2013-01-31 22:13:00,
2013-01-31 15:17:00,69.3,35.6,30.14,NNW,339,12.0,17.0,29,0.00,,,0.00,531,WeatherHawk,2013-01-31 22:17:00,
2013-01-31 15:19:00,69.4,34.9,30.14,North,0,13.0,18.0,28,0.00,,,0.00,507,WeatherHawk,2013-01-31 22:19:00,
2013-01-31 15:21:00,69.4,34.9,30.14,NNW,340,15.0,18.0,28,0.00,,,0.00,491,WeatherHawk,2013-01-31 22:21:00,
2013-01-31 15:22:00,69.4,35.8,30.14,North,3,13.0,18.0,29,0.00,,,0.00,490,WeatherHawk,2013-01-31 22:22:00,
2013-01-31 15:23:00,69.4,34.9,30.13,North,359,13.0,18.0,28,0.00,,,0.00,499,WeatherHawk,2013-01-31 22:23:00,
2013-01-31 15:25:00,69.4,34.9,30.14,North,350,11.0,18.0,28,0.00,,,0.00,478,WeatherHawk,2013-01-31 22:25:00,
2013-01-31 15:28:00,69.4,35.8,30.14,North,350,13.0,-999.0,29,0.00,,,0.00,475,WeatherHawk,2013-01-31 22:28:00,
2013-01-31 15:31:00,69.4,34.9,30.14,NNW,342,13.0,16.0,28,0.00,,,0.00,456,WeatherHawk,2013-01-31 22:31:00,
2013-01-31 15:33:00,69.3,34.8,30.14,North,354,14.0,-999.0,28,0.00,,,0.00,493,WeatherHawk,2013-01-31 22:33:00,
2013-01-31 15:36:00,69.4,34.9,30.14,North,354,13.0,16.0,28,0.00,,,0.00,480,WeatherHawk,2013-01-31 22:36:00,
2013-01-31 15:37:00,69.4,34.9,30.14,NNW,347,13.0,16.0,28,0.00,,,0.00,470,WeatherHawk,2013-01-31 22:37:00,
2013-01-31 15:41:00,69.3,34.8,30.14,North,358,12.0,18.0,28,0.00,,,0.00,461,WeatherHawk,2013-01-31 22:41:00,
2013-01-31 15:43:00,69.4,34.9,30.13,North,1,15.0,18.0,28,0.00,,,0.00,454,WeatherHawk,2013-01-31 22:43:00,
2013-01-31 15:45:00,69.6,35.1,30.13,North,359,13.0,18.0,28,0.00,,,0.00,449,WeatherHawk,2013-01-31 22:45:00,
2013-01-31 15:48:00,69.4,35.8,30.13,North,3,9.0,18.0,29,0.00,,,0.00,441,WeatherHawk,2013-01-31 22:48:00,
2013-01-31 15:51:00,69.4,35.8,30.13,NNW,335,13.0,16.0,29,0.00,,,0.00,424,WeatherHawk,2013-01-31 22:51:00,
2013-01-31 15:53:00,69.4,37.5,30.13,NNW,334,12.0,-999.0,31,0.00,,,0.00,417,WeatherHawk,2013-01-31 22:53:00,
2013-01-31 15:55:00,69.4,35.8,30.13,North,357,13.0,16.0,29,0.00,,,0.00,412,WeatherHawk,2013-01-31 22:55:00,
2013-01-31 15:56:00,69.4,35.8,30.13,North,354,12.0,16.0,29,0.00,,,0.00,407,WeatherHawk,2013-01-31 22:56:00,
2013-01-31 15:58:00,69.4,35.8,30.13,North,353,12.0,-999.0,29,0.00,,,0.00,397,WeatherHawk,2013-01-31 22:58:00,
2013-01-31 16:00:00,69.6,35.9,30.12,NNW,338,15.0,16.0,29,0.00,,,0.00,392,WeatherHawk,2013-01-31 23:00:00,
2013-01-31 16:02:00,69.4,36.6,30.12,NNW,348,9.0,16.0,30,0.00,,,0.00,388,WeatherHawk,2013-01-31 23:02:00,
2013-01-31 16:03:00,69.6,37.6,30.12,NNW,342,11.0,16.0,31,0.00,,,0.00,384,WeatherHawk,2013-01-31 23:03:00,
2013-01-31 16:06:00,69.4,36.6,30.12,NNW,346,10.0,16.0,30,0.00,,,0.00,372,WeatherHawk,2013-01-31 23:06:00,
2013-01-31 16:08:00,69.3,37.3,30.12,NNW,338,13.0,16.0,31,0.00,,,0.00,372,WeatherHawk,2013-01-31 23:08:00,
2013-01-31 16:12:00,69.3,36.5,30.12,NNW,330,14.0,15.0,30,0.00,,,0.00,353,WeatherHawk,2013-01-31 23:12:00,
2013-01-31 16:13:00,69.3,36.5,30.12,NNW,330,14.0,15.0,30,0.00,,,0.00,353,WeatherHawk,2013-01-31 23:13:00,
2013-01-31 16:18:00,69.3,36.5,30.12,NNW,337,11.0,15.0,30,0.00,,,0.00,206,WeatherHawk,2013-01-31 23:18:00,
2013-01-31 16:19:00,69.3,36.5,30.12,NNW,340,11.0,16.0,30,0.00,,,0.00,190,WeatherHawk,2013-01-31 23:19:00,
2013-01-31 16:20:00,69.3,37.3,30.12,NNW,348,12.0,16.0,31,0.00,,,0.00,257,WeatherHawk,2013-01-31 23:20:00,
2013-01-31 16:23:00,69.1,37.2,30.12,NNW,339,14.0,16.0,31,0.00,,,0.00,307,WeatherHawk,2013-01-31 23:23:00,
2013-01-31 16:26:00,68.9,37.0,30.12,NNW,345,10.0,16.0,31,0.00,,,0.00,312,WeatherHawk,2013-01-31 23:26:00,
2013-01-31 16:28:00,68.9,37.8,30.12,NNW,344,14.0,-999.0,32,0.00,,,0.00,305,WeatherHawk,2013-01-31 23:28:00,
2013-01-31 16:30:00,68.9,37.8,30.12,NNW,336,11.0,14.0,32,0.00,,,0.00,299,WeatherHawk,2013-01-31 23:30:00,
2013-01-31 16:31:00,68.9,37.8,30.12,NNW,340,11.0,14.0,32,0.00,,,0.00,296,WeatherHawk,2013-01-31 23:31:00,
2013-01-31 16:34:00,68.9,37.8,30.12,NNW,339,12.0,14.0,32,0.00,,,0.00,200,WeatherHawk,2013-01-31 23:34:00,
2013-01-31 16:35:00,68.9,37.8,30.12,North,350,14.0,14.0,32,0.00,,,0.00,277,WeatherHawk,2013-01-31 23:35:00,
2013-01-31 16:37:00,68.9,37.0,30.12,North,350,13.0,14.0,31,0.00,,,0.00,275,WeatherHawk,2013-01-31 23:37:00,
2013-01-31 16:42:00,68.9,37.0,30.11,NNW,342,13.0,14.0,31,0.00,,,0.00,259,WeatherHawk,2013-01-31 23:42:00,
2013-01-31 16:43:00,68.9,37.0,30.11,NNW,342,13.0,14.0,31,0.00,,,0.00,259,WeatherHawk,2013-01-31 23:43:00,
2013-01-31 16:48:00,68.7,37.7,30.12,NNW,336,13.0,14.0,32,0.00,,,0.00,219,WeatherHawk,2013-01-31 23:48:00,
2013-01-31 16:52:00,68.5,37.5,30.12,NNW,344,10.0,14.0,32,0.00,,,0.00,224,WeatherHawk,2013-01-31 23:52:00,
2013-01-31 16:53:00,68.5,37.5,30.12,NNW,344,10.0,14.0,32,0.00,,,0.00,224,WeatherHawk,2013-01-31 23:53:00,
2013-01-31 16:57:00,68.5,36.7,30.12,NNW,347,11.0,14.0,31,0.00,,,0.00,212,WeatherHawk,2013-01-31 23:57:00,
2013-01-31 16:58:00,68.5,36.7,30.12,NNW,347,11.0,14.0,31,0.00,,,0.00,212,WeatherHawk,2013-01-31 23:58:00,
2013-01-31 17:00:00,68.5,37.5,30.12,NNW,342,9.0,14.0,32,0.00,,,0.00,201,WeatherHawk,2013-02-01 00:00:00,
2013-01-31 17:03:00,68.4,38.1,30.12,NNW,342,9.0,14.0,33,0.00,,,0.00,189,WeatherHawk,2013-02-01 00:03:00,
2013-01-31 17:08:00,68.2,38.0,30.12,NNW,342,9.0,-999.0,33,0.00,,,0.00,173,WeatherHawk,2013-02-01 00:08:00,
2013-01-31 17:13:00,68.0,38.6,30.12,NNW,339,9.0,13.0,34,0.00,,,0.00,156,WeatherHawk,2013-02-01 00:13:00,
2013-01-31 17:14:00,67.8,38.4,30.12,NNW,333,11.0,13.0,34,0.00,,,0.00,152,WeatherHawk,2013-02-01 00:14:00,
2013-01-31 17:16:00,67.8,39.2,30.12,NNW,334,8.0,13.0,35,0.00,,,0.00,145,WeatherHawk,2013-02-01 00:16:00,
2013-01-31 17:17:00,67.8,39.2,30.12,NNW,331,8.0,13.0,35,0.00,,,0.00,140,WeatherHawk,2013-02-01 00:17:00,
2013-01-31 17:21:00,67.6,39.0,30.12,NNW,337,8.0,11.0,35,0.00,,,0.00,128,WeatherHawk,2013-02-01 00:21:00,
2013-01-31 17:23:00,67.5,39.6,30.13,NNW,338,8.0,11.0,36,0.00,,,0.00,123,WeatherHawk,2013-02-01 00:23:00,
2013-01-31 17:25:00,67.5,39.6,30.13,NNW,335,6.0,11.0,36,0.00,,,0.00,117,WeatherHawk,2013-02-01 00:25:00,
2013-01-31 17:27:00,67.3,39.4,30.13,NNW,335,7.0,11.0,36,0.00,,,0.00,111,WeatherHawk,2013-02-01 00:27:00,
2013-01-31 17:29:00,67.1,40.0,30.13,NNW,334,7.0,11.0,37,0.00,,,0.00,107,WeatherHawk,2013-02-01 00:29:00,
2013-01-31 17:30:00,67.1,40.0,30.13,NNW,333,7.0,11.0,37,0.00,,,0.00,102,WeatherHawk,2013-02-01 00:30:00,
2013-01-31 17:35:00,66.7,40.3,30.12,NNW,339,7.0,11.0,38,0.00,,,0.00,90,WeatherHawk,2013-02-01 00:35:00,
2013-01-31 17:36:00,66.7,40.3,30.12,NNW,333,6.0,11.0,38,0.00,,,0.00,86,WeatherHawk,2013-02-01 00:36:00,
2013-01-31 17:40:00,66.6,39.5,30.13,NNW,338,7.0,9.0,37,0.00,,,0.00,74,WeatherHawk,2013-02-01 00:40:00,
2013-01-31 17:41:00,66.6,39.5,30.13,NNW,344,6.0,9.0,37,0.00,,,0.00,72,WeatherHawk,2013-02-01 00:41:00,
2013-01-31 17:42:00,66.6,38.8,30.13,NNW,340,7.0,9.0,36,0.00,,,0.00,70,WeatherHawk,2013-02-01 00:42:00,
2013-01-31 17:43:00,66.6,38.8,30.13,NNW,344,7.0,-999.0,36,0.00,,,0.00,66,WeatherHawk,2013-02-01 00:43:00,
2013-01-31 17:45:00,66.7,38.2,30.13,North,354,9.0,9.0,35,0.00,,,0.00,62,WeatherHawk,2013-02-01 00:45:00,
2013-01-31 17:47:00,66.7,37.5,30.13,NNW,347,10.0,10.0,34,0.00,,,0.00,57,WeatherHawk,2013-02-01 00:47:00,
2013-01-31 17:48:00,66.7,38.2,30.13,North,355,9.0,-999.0,35,0.00,,,0.00,55,WeatherHawk,2013-02-01 00:48:00,
2013-01-31 17:50:00,66.7,38.2,30.13,North,352,8.0,11.0,35,0.00,,,0.00,48,WeatherHawk,2013-02-01 00:50:00,
2013-01-31 17:51:00,66.6,38.1,30.13,North,356,7.0,11.0,35,0.00,,,0.00,46,WeatherHawk,2013-02-01 00:51:00,
2013-01-31 17:52:00,66.6,38.1,30.13,North,353,8.0,11.0,35,0.00,,,0.00,45,WeatherHawk,2013-02-01 00:52:00,
2013-01-31 17:54:00,66.4,37.9,30.13,North,351,6.0,11.0,35,0.00,,,0.00,40,WeatherHawk,2013-02-01 00:54:00,
2013-01-31 17:58:00,66.4,37.2,30.14,North,358,7.0,-999.0,34,0.00,,,0.00,32,WeatherHawk,2013-02-01 00:58:00,
2013-01-31 17:59:00,66.4,37.9,30.13,North,354,6.0,11.0,35,0.00,,,0.00,29,WeatherHawk,2013-02-01 00:59:00,
2013-01-31 18:00:00,66.2,37.7,30.14,North,0,6.0,11.0,35,0.00,,,0.00,27,WeatherHawk,2013-02-01 01:00:00,
2013-01-31 18:03:00,65.8,38.1,30.13,North,0,6.0,11.0,36,0.00,,,0.00,21,WeatherHawk,2013-02-01 01:03:00,
2013-01-31 18:05:00,65.7,38.0,30.13,North,3,9.0,11.0,36,0.00,,,0.00,14,WeatherHawk,2013-02-01 01:05:00,
2013-01-31 18:08:00,65.7,38.0,30.13,North,359,7.0,11.0,36,0.00,,,0.00,7,WeatherHawk,2013-02-01 01:08:00,
2013-01-31 18:09:00,65.7,38.0,30.13,North,353,7.0,9.0,36,0.00,,,0.00,6,WeatherHawk,2013-02-01 01:09:00,
2013-01-31 18:11:00,65.7,38.0,30.13,North,355,8.0,9.0,36,0.00,,,0.00,6,WeatherHawk,2013-02-01 01:11:00,
2013-01-31 18:13:00,65.5,37.8,30.13,North,355,6.0,-999.0,36,0.00,,,0.00,4,WeatherHawk,2013-02-01 01:13:00,
2013-01-31 18:14:00,65.3,37.7,30.13,North,357,7.0,9.0,36,0.00,,,0.00,5,WeatherHawk,2013-02-01 01:14:00,
2013-01-31 18:15:00,65.1,38.2,30.13,North,352,6.0,9.0,37,0.00,,,0.00,3,WeatherHawk,2013-02-01 01:15:00,
2013-01-31 18:18:00,64.8,37.9,30.13,North,356,7.0,9.0,37,0.00,,,0.00,2,WeatherHawk,2013-02-01 01:18:00,
2013-01-31 18:20:00,64.6,38.4,30.13,North,356,6.0,8.0,38,0.00,,,0.00,1,WeatherHawk,2013-02-01 01:20:00,
2013-01-31 18:22:00,64.2,38.1,30.13,North,359,6.0,8.0,38,0.00,,,0.00,1,WeatherHawk,2013-02-01 01:22:00,
2013-01-31 18:23:00,64.2,38.1,30.13,North,0,6.0,-999.0,38,0.00,,,0.00,1,WeatherHawk,2013-02-01 01:23:00,
2013-01-31 18:24:00,64.0,37.9,30.13,North,357,6.0,8.0,38,0.00,,,0.00,1,WeatherHawk,2013-02-01 01:24:00,
2013-01-31 18:28:00,64.0,37.2,30.13,North,0,6.0,8.0,37,0.00,,,0.00,0,WeatherHawk,2013-02-01 01:28:00,
2013-01-31 18:30:00,64.0,37.9,30.13,North,2,7.0,7.0,38,0.00,,,0.00,1,WeatherHawk,2013-02-01 01:30:00,
2013-01-31 18:33:00,63.9,37.8,30.13,North,2,7.0,-999.0,38,0.00,,,0.00,0,WeatherHawk,2013-02-01 01:33:00,
2013-01-31 18:35:00,63.7,38.3,30.13,North,2,7.0,7.0,39,0.00,,,0.00,0,WeatherHawk,2013-02-01 01:35:00,
2013-01-31 18:36:00,63.7,38.3,30.13,North,3,7.0,7.0,39,0.00,,,0.00,0,WeatherHawk,2013-02-01 01:36:00,
2013-01-31 18:38:00,63.7,37.6,30.13,North,3,7.0,7.0,38,0.00,,,0.00,0,WeatherHawk,2013-02-01 01:38:00,
2013-01-31 18:41:00,63.9,37.8,30.13,North,6,7.0,8.0,38,0.00,,,0.00,0,WeatherHawk,2013-02-01 01:41:00,
2013-01-31 18:43:00,63.9,37.8,30.13,North,6,6.0,8.0,38,0.00,,,0.00,0,WeatherHawk,2013-02-01 01:43:00,
2013-01-31 18:47:00,64.0,36.5,30.13,North,6,7.0,8.0,36,0.00,,,0.00,1,WeatherHawk,2013-02-01 01:47:00,
2013-01-31 18:48:00,64.0,37.2,30.13,North,7,7.0,8.0,37,0.00,,,0.00,0,WeatherHawk,2013-02-01 01:48:00,
2013-01-31 18:49:00,64.2,37.4,30.13,North,8,6.0,8.0,37,0.00,,,0.00,0,WeatherHawk,2013-02-01 01:49:00,
2013-01-31 18:52:00,63.9,37.1,30.13,North,6,6.0,8.0,37,0.00,,,0.00,0,WeatherHawk,2013-02-01 01:52:00,
2013-01-31 18:53:00,63.9,37.1,30.13,North,8,6.0,8.0,37,0.00,,,0.00,0,WeatherHawk,2013-02-01 01:53:00,
2013-01-31 18:54:00,63.9,37.1,30.13,North,8,6.0,8.0,37,0.00,,,0.00,0,WeatherHawk,2013-02-01 01:54:00,
2013-01-31 18:58:00,63.7,37.6,30.13,North,9,6.0,-999.0,38,0.00,,,0.00,0,WeatherHawk,2013-02-01 01:58:00,
2013-01-31 19:00:00,63.7,37.6,30.13,North,9,6.0,0.0,38,0.00,,,0.00,0,WeatherHawk,2013-02-01 02:00:00,
2013-01-31 19:01:00,63.7,37.6,30.13,North,7,6.0,0.0,38,0.00,,,0.00,0,WeatherHawk,2013-02-01 02:01:00,
2013-01-31 19:03:00,63.5,38.1,30.13,North,359,5.0,-999.0,39,0.00,,,0.00,0,WeatherHawk,2013-02-01 02:03:00,
2013-01-31 19:05:00,63.1,37.8,30.13,North,356,5.0,0.0,39,0.00,,,0.00,1,WeatherHawk,2013-02-01 02:05:00,
2013-01-31 19:07:00,63.0,37.6,30.13,North,4,5.0,0.0,39,0.00,,,0.00,0,WeatherHawk,2013-02-01 02:07:00,
2013-01-31 19:08:00,63.0,38.3,30.13,North,5,4.0,-999.0,40,0.00,,,0.00,0,WeatherHawk,2013-02-01 02:08:00,
2013-01-31 19:10:00,63.0,38.3,30.13,North,4,4.0,0.0,40,0.00,,,0.00,0,WeatherHawk,2013-02-01 02:10:00,
2013-01-31 19:13:00,62.8,38.1,30.13,North,11,4.0,6.0,40,0.00,,,0.00,0,WeatherHawk,2013-02-01 02:13:00,
2013-01-31 19:16:00,62.4,37.8,30.13,North,10,4.0,6.0,40,0.00,,,0.00,0,WeatherHawk,2013-02-01 02:16:00,
2013-01-31 19:17:00,62.4,37.8,30.13,North,10,4.0,6.0,40,0.00,,,0.00,1,WeatherHawk,2013-02-01 02:17:00,
2013-01-31 19:19:00,62.6,37.9,30.13,NNE,12,4.0,0.0,40,0.00,,,0.00,0,WeatherHawk,2013-02-01 02:19:00,
2013-01-31 19:23:00,62.4,37.8,30.13,NNE,15,4.0,0.0,40,0.00,,,0.00,0,WeatherHawk,2013-02-01 02:23:00,
2013-01-31 19:26:00,62.2,37.6,30.12,North,9,4.0,0.0,40,0.00,,,0.00,0,WeatherHawk,2013-02-01 02:26:00,
2013-01-31 19:28:00,62.2,37.6,30.12,North,10,4.0,-999.0,40,0.00,,,0.00,0,WeatherHawk,2013-02-01 02:28:00,
2013-01-31 19:33:00,62.4,37.8,30.12,North,2,4.0,4.0,40,0.00,,,0.00,0,WeatherHawk,2013-02-01 02:33:00,
2013-01-31 19:34:00,62.4,37.8,30.12,North,0,4.0,4.0,40,0.00,,,0.00,0,WeatherHawk,2013-02-01 02:34:00,
2013-01-31 19:37:00,62.4,37.1,30.12,North,358,4.0,4.0,39,0.00,,,0.00,1,WeatherHawk,2013-02-01 02:37:00,
2013-01-31 19:38:00,62.4,37.1,30.12,North,358,4.0,4.0,39,0.00,,,0.00,1,WeatherHawk,2013-02-01 02:38:00,
2013-01-31 19:40:00,62.4,37.8,30.12,North,359,4.0,5.0,40,0.00,,,0.00,0,WeatherHawk,2013-02-01 02:40:00,
2013-01-31 19:43:00,62.2,37.6,30.12,North,1,5.0,-999.0,40,0.00,,,0.00,0,WeatherHawk,2013-02-01 02:43:00,
2013-01-31 19:48:00,61.9,37.3,30.12,North,353,5.0,5.0,40,0.00,,,0.00,0,WeatherHawk,2013-02-01 02:48:00,
2013-01-31 19:49:00,62.1,36.8,30.12,North,355,5.0,5.0,39,0.00,,,0.00,0,WeatherHawk,2013-02-01 02:49:00,
2013-01-31 19:51:00,62.1,37.5,30.12,North,355,5.0,5.0,40,0.00,,,0.00,0,WeatherHawk,2013-02-01 02:51:00,
2013-01-31 19:53:00,62.1,36.8,30.12,North,354,5.0,5.0,39,0.00,,,0.00,0,WeatherHawk,2013-02-01 02:53:00,
2013-01-31 19:54:00,62.1,37.5,30.12,North,357,5.0,5.0,40,0.00,,,0.00,0,WeatherHawk,2013-02-01 02:54:00,
2013-01-31 19:56:00,61.9,37.3,30.12,North,1,5.0,5.0,40,0.00,,,0.00,0,WeatherHawk,2013-02-01 02:56:00,
2013-01-31 19:57:00,61.9,37.3,30.12,North,2,5.0,5.0,40,0.00,,,0.00,1,WeatherHawk,2013-02-01 02:57:00,
2013-01-31 20:00:00,61.9,37.3,30.11,North,10,5.0,6.0,40,0.00,,,0.00,0,WeatherHawk,2013-02-01 03:00:00,
2013-01-31 20:03:00,61.7,37.1,30.11,NNE,17,5.0,6.0,40,0.00,,,0.00,0,WeatherHawk,2013-02-01 03:03:00,
2013-01-31 20:06:00,61.7,37.1,30.11,NNE,17,6.0,6.0,40,0.00,,,0.00,0,WeatherHawk,2013-02-01 03:06:00,
2013-01-31 20:08:00,61.7,37.1,30.11,NNE,12,6.0,-999.0,40,0.00,,,0.00,0,WeatherHawk,2013-02-01 03:08:00,
2013-01-31 20:10:00,61.7,37.1,30.11,NNE,13,6.0,0.0,40,0.00,,,0.00,0,WeatherHawk,2013-02-01 03:10:00,
2013-01-31 20:12:00,61.7,37.1,30.11,NNE,13,6.0,0.0,40,0.00,,,0.00,0,WeatherHawk,2013-02-01 03:12:00,
2013-01-31 20:13:00,61.7,37.1,30.11,NNE,21,6.0,0.0,40,0.00,,,0.00,0,WeatherHawk,2013-02-01 03:13:00,
2013-01-31 20:15:00,61.5,37.0,30.11,NNE,21,5.0,0.0,40,0.00,,,0.00,0,WeatherHawk,2013-02-01 03:15:00,
2013-01-31 20:18:00,61.3,37.4,30.11,NNE,28,4.0,0.0,41,0.00,,,0.00,0,WeatherHawk,2013-02-01 03:18:00,
2013-01-31 20:19:00,61.2,37.3,30.11,NNE,29,5.0,0.0,41,0.00,,,0.00,0,WeatherHawk,2013-02-01 03:19:00,
2013-01-31 20:22:00,60.8,38.2,30.11,NNE,25,5.0,0.0,43,0.00,,,0.00,0,WeatherHawk,2013-02-01 03:22:00,
2013-01-31 20:23:00,60.6,38.0,30.11,NNE,30,5.0,0.0,43,0.00,,,0.00,0,WeatherHawk,2013-02-01 03:23:00,
2013-01-31 20:25:00,60.4,37.8,30.11,NNE,29,5.0,0.0,43,0.00,,,0.00,0,WeatherHawk,2013-02-01 03:25:00,
2013-01-31 20:28:00,60.3,38.3,30.11,NNE,22,4.0,0.0,44,0.00,,,0.00,0,WeatherHawk,2013-02-01 03:28:00,
2013-01-31 20:31:00,60.1,37.5,30.11,NNE,19,5.0,5.0,43,0.00,,,0.00,0,WeatherHawk,2013-02-01 03:31:00,
2013-01-31 20:33:00,60.3,37.7,30.11,NNE,18,5.0,5.0,43,0.00,,,0.00,0,WeatherHawk,2013-02-01 03:33:00,
2013-01-31 20:38:00,60.3,37.7,30.12,NNE,17,4.0,5.0,43,0.00,,,0.00,0,WeatherHawk,2013-02-01 03:38:00,
2013-01-31 20:40:00,60.3,37.7,30.12,North,359,4.0,0.0,43,0.00,,,0.00,0,WeatherHawk,2013-02-01 03:40:00,
2013-01-31 20:43:00,59.2,40.0,30.12,West,268,3.0,-999.0,49,0.00,,,0.00,0,WeatherHawk,2013-02-01 03:43:00,
2013-01-31 20:45:00,58.1,39.0,30.12,West,264,4.0,0.0,49,0.00,,,0.00,0,WeatherHawk,2013-02-01 03:45:00,
2013-01-31 20:49:00,57.2,38.7,30.12,West,260,3.0,0.0,50,0.00,,,0.00,0,WeatherHawk,2013-02-01 03:49:00,
2013-01-31 20:50:00,57.2,38.7,30.12,West,263,4.0,0.0,50,0.00,,,0.00,0,WeatherHawk,2013-02-01 03:50:00,
2013-01-31 20:54:00,57.4,38.4,30.12,WSW,258,3.0,0.0,49,0.00,,,0.00,0,WeatherHawk,2013-02-01 03:54:00,
2013-01-31 20:55:00,57.4,38.4,30.12,WSW,255,3.0,0.0,49,0.00,,,0.00,0,WeatherHawk,2013-02-01 03:55:00,
2013-01-31 20:56:00,57.6,38.0,30.12,West,265,3.0,0.0,48,0.00,,,0.00,0,WeatherHawk,2013-02-01 03:56:00,
2013-01-31 20:58:00,57.7,38.2,30.12,West,268,2.0,-999.0,48,0.00,,,0.00,0,WeatherHawk,2013-02-01 03:58:00,
2013-01-31 21:00:00,57.9,38.3,30.12,West,269,3.0,0.0,48,0.00,,,0.00,0,WeatherHawk,2013-02-01 04:00:00,
2013-01-31 21:01:00,58.1,38.5,30.12,WSW,258,3.0,0.0,48,0.00,,,0.00,0,WeatherHawk,2013-02-01 04:01:00,
2013-01-31 21:03:00,58.1,38.5,30.12,West,260,4.0,0.0,48,0.00,,,0.00,0,WeatherHawk,2013-02-01 04:03:00,
2013-01-31 21:05:00,58.1,38.5,30.12,West,263,2.0,0.0,48,0.00,,,0.00,0,WeatherHawk,2013-02-01 04:05:00,
2013-01-31 21:07:00,58.1,38.0,30.12,West,273,1.0,0.0,47,0.00,,,0.00,0,WeatherHawk,2013-02-01 04:07:00,
2013-01-31 21:08:00,58.1,38.0,30.12,West,273,1.0,-999.0,47,0.00,,,0.00,0,WeatherHawk,2013-02-01 04:08:00,
2013-01-31 21:13:00,57.9,37.3,30.13,WSW,253,2.0,-999.0,46,0.00,,,0.00,0,WeatherHawk,2013-02-01 04:13:00,
2013-01-31 21:15:00,58.5,37.2,30.13,WSW,250,2.0,0.0,45,0.00,,,0.00,1,WeatherHawk,2013-02-01 04:15:00,
2013-01-31 21:18:00,58.8,37.5,30.13,WSW,253,3.0,-999.0,45,0.00,,,0.00,0,WeatherHawk,2013-02-01 04:18:00,
2013-01-31 21:20:00,59.0,37.7,30.13,WSW,257,3.0,3.0,45,0.00,,,0.00,0,WeatherHawk,2013-02-01 04:20:00,
2013-01-31 21:21:00,59.2,37.9,30.13,West,263,3.0,3.0,45,0.00,,,0.00,0,WeatherHawk,2013-02-01 04:21:00,
2013-01-31 21:25:00,59.5,37.6,30.13,West,259,4.0,4.0,44,0.00,,,0.00,0,WeatherHawk,2013-02-01 04:25:00,
2013-01-31 21:26:00,59.5,37.6,30.13,West,267,3.0,3.0,44,0.00,,,0.00,0,WeatherHawk,2013-02-01 04:26:00,
2013-01-31 21:30:00,59.7,37.8,30.13,West,260,5.0,5.0,44,0.00,,,0.00,0,WeatherHawk,2013-02-01 04:30:00,
2013-01-31 21:31:00,59.7,37.8,30.13,WSW,257,5.0,5.0,44,0.00,,,0.00,0,WeatherHawk,2013-02-01 04:31:00,
2013-01-31 21:32:00,59.5,38.2,30.13,West,259,4.0,5.0,45,0.00,,,0.00,0,WeatherHawk,2013-02-01 04:32:00,
2013-01-31 21:36:00,59.4,38.6,30.13,West,271,4.0,5.0,46,0.00,,,0.00,0,WeatherHawk,2013-02-01 04:36:00,
2013-01-31 21:38:00,59.4,38.6,30.13,West,267,4.0,0.0,46,0.00,,,0.00,0,WeatherHawk,2013-02-01 04:38:00,
2013-01-31 21:40:00,59.4,38.6,30.13,West,266,4.0,0.0,46,0.00,,,0.00,0,WeatherHawk,2013-02-01 04:40:00,
2013-01-31 21:41:00,59.4,38.6,30.13,West,280,4.0,0.0,46,0.00,,,0.00,0,WeatherHawk,2013-02-01 04:41:00,
2013-01-31 21:44:00,59.2,39.0,30.13,WNW,282,2.0,0.0,47,0.00,,,0.00,0,WeatherHawk,2013-02-01 04:44:00,
2013-01-31 21:46:00,59.0,38.8,30.13,West,279,3.0,0.0,47,0.00,,,0.00,0,WeatherHawk,2013-02-01 04:46:00,
2013-01-31 21:47:00,59.0,38.8,30.13,West,265,3.0,0.0,47,0.00,,,0.00,0,WeatherHawk,2013-02-01 04:47:00,
2013-01-31 21:49:00,58.8,39.2,30.14,WSW,248,3.0,0.0,48,0.00,,,0.00,0,WeatherHawk,2013-02-01 04:49:00,
2013-01-31 21:52:00,58.8,39.2,30.14,WSW,258,3.0,0.0,48,0.00,,,0.00,0,WeatherHawk,2013-02-01 04:52:00,
2013-01-31 21:54:00,58.8,39.2,30.14,West,259,2.0,0.0,48,0.00,,,0.00,0,WeatherHawk,2013-02-01 04:54:00,
2013-01-31 21:57:00,58.6,39.5,30.14,West,271,2.0,0.0,49,0.00,,,0.00,0,WeatherHawk,2013-02-01 04:57:00,
2013-01-31 21:58:00,58.6,39.5,30.13,West,278,2.0,0.0,49,0.00,,,0.00,0,WeatherHawk,2013-02-01 04:58:00,
2013-01-31 22:02:00,58.5,39.9,30.13,NNW,341,2.0,0.0,50,0.00,,,0.00,0,WeatherHawk,2013-02-01 05:02:00,
2013-01-31 22:03:00,58.5,39.9,30.13,NNW,342,3.0,0.0,50,0.00,,,0.00,0,WeatherHawk,2013-02-01 05:03:00,
2013-01-31 22:06:00,58.5,39.9,30.13,NNW,335,4.0,0.0,50,0.00,,,0.00,0,WeatherHawk,2013-02-01 05:06:00,
2013-01-31 22:08:00,58.5,39.9,30.13,NNW,334,4.0,-999.0,50,0.00,,,0.00,0,WeatherHawk,2013-02-01 05:08:00,
2013-01-31 22:10:00,58.5,40.4,30.13,NNW,330,4.0,5.0,51,0.00,,,0.00,0,WeatherHawk,2013-02-01 05:10:00,
2013-01-31 22:11:00,58.5,40.4,30.13,NNW,339,4.0,5.0,51,0.00,,,0.00,0,WeatherHawk,2013-02-01 05:11:00,
2013-01-31 22:12:00,58.5,40.4,30.13,NNW,329,5.0,5.0,51,0.00,,,0.00,0,WeatherHawk,2013-02-01 05:12:00,
2013-01-31 22:13:00,58.5,40.4,30.13,NNW,329,5.0,-999.0,51,0.00,,,0.00,0,WeatherHawk,2013-02-01 05:13:00,
2013-01-31 22:17:00,58.6,40.6,30.13,NW,311,5.0,5.0,51,0.00,,,0.00,0,WeatherHawk,2013-02-01 05:17:00,
2013-01-31 22:18:00,58.6,40.6,30.13,NW,307,4.0,5.0,51,0.00,,,0.00,0,WeatherHawk,2013-02-01 05:18:00,
2013-01-31 22:23:00,58.5,40.4,30.13,WNW,298,3.0,-999.0,51,0.00,,,0.00,1,WeatherHawk,2013-02-01 05:23:00,
2013-01-31 22:26:00,58.1,40.6,30.14,WNW,292,4.0,0.0,52,0.00,,,0.00,0,WeatherHawk,2013-02-01 05:26:00,
2013-01-31 22:27:00,58.1,40.6,30.14,WNW,286,3.0,0.0,52,0.00,,,0.00,0,WeatherHawk,2013-02-01 05:27:00,
2013-01-31 22:28:00,57.9,40.4,30.14,WNW,286,3.0,0.0,52,0.00,,,0.00,0,WeatherHawk,2013-02-01 05:28:00,
2013-01-31 22:29:00,57.9,40.4,30.14,West,274,3.0,0.0,52,0.00,,,0.00,0,WeatherHawk,2013-02-01 05:29:00,
2013-01-31 22:32:00,57.6,40.6,30.14,WNW,290,4.0,0.0,53,0.00,,,0.00,0,WeatherHawk,2013-02-01 05:32:00,
2013-01-31 22:36:00,57.2,40.7,30.14,WNW,294,4.0,0.0,54,0.00,,,0.00,0,WeatherHawk,2013-02-01 05:36:00,
2013-01-31 22:38:00,57.2,40.7,30.14,WNW,290,4.0,-999.0,54,0.00,,,0.00,0,WeatherHawk,2013-02-01 05:38:00,
2013-01-31 22:41:00,57.0,40.5,30.14,WNW,295,4.0,0.0,54,0.00,,,0.00,0,WeatherHawk,2013-02-01 05:41:00,
2013-01-31 22:43:00,57.0,41.0,30.14,WNW,295,4.0,-999.0,55,0.00,,,0.00,1,WeatherHawk,2013-02-01 05:43:00,
2013-01-31 22:44:00,56.8,40.8,30.14,WNW,296,3.0,0.0,55,0.00,,,0.00,0,WeatherHawk,2013-02-01 05:44:00,
2013-01-31 22:47:00,56.7,40.7,30.13,NW,304,4.0,0.0,55,0.00,,,0.00,0,WeatherHawk,2013-02-01 05:47:00,
2013-01-31 22:48:00,56.7,40.7,30.13,WNW,299,3.0,0.0,55,0.00,,,0.00,0,WeatherHawk,2013-02-01 05:48:00,
2013-01-31 22:49:00,56.7,41.1,30.13,WNW,303,3.0,0.0,56,0.00,,,0.00,0,WeatherHawk,2013-02-01 05:49:00,
2013-01-31 22:53:00,56.5,41.0,30.13,NW,316,3.0,0.0,56,0.00,,,0.00,0,WeatherHawk,2013-02-01 05:53:00,
2013-01-31 22:54:00,56.3,41.3,30.13,NW,308,4.0,0.0,57,0.00,,,0.00,0,WeatherHawk,2013-02-01 05:54:00,
2013-01-31 22:55:00,56.3,41.3,30.13,NW,316,3.0,0.0,57,0.00,,,0.00,0,WeatherHawk,2013-02-01 05:55:00,
2013-01-31 22:58:00,56.1,41.1,30.13,NW,308,3.0,0.0,57,0.00,,,0.00,0,WeatherHawk,2013-02-01 05:58:00,
2013-01-31 23:03:00,56.1,41.5,30.13,NW,323,4.0,0.0,58,0.00,,,0.00,0,WeatherHawk,2013-02-01 06:03:00,
2013-01-31 23:04:00,56.1,41.5,30.13,NW,312,4.0,0.0,58,0.00,,,0.00,1,WeatherHawk,2013-02-01 06:04:00,
2013-01-31 23:08:00,56.3,41.7,30.13,WNW,301,4.0,0.0,58,0.00,,,0.00,0,WeatherHawk,2013-02-01 06:08:00,
2013-01-31 23:09:00,56.3,41.7,30.13,NW,311,5.0,0.0,58,0.00,,,0.00,0,WeatherHawk,2013-02-01 06:09:00,
2013-01-31 23:10:00,56.3,41.7,30.13,NW,308,4.0,0.0,58,0.00,,,0.00,0,WeatherHawk,2013-02-01 06:10:00,
2013-01-31 23:13:00,56.1,41.5,30.13,NW,310,4.0,-999.0,58,0.00,,,0.00,0,WeatherHawk,2013-02-01 06:13:00,
2013-01-31 23:14:00,56.1,41.5,30.13,WNW,300,4.0,0.0,58,0.00,,,0.00,0,WeatherHawk,2013-02-01 06:14:00,
2013-01-31 23:16:00,56.1,41.5,30.13,WNW,290,3.0,0.0,58,0.00,,,0.00,0,WeatherHawk,2013-02-01 06:16:00,
2013-01-31 23:18:00,55.9,41.4,30.13,WNW,292,3.0,-999.0,58,0.00,,,0.00,0,WeatherHawk,2013-02-01 06:18:00,
2013-01-31 23:21:00,55.9,41.4,30.13,WNW,299,4.0,5.0,58,0.00,,,0.00,0,WeatherHawk,2013-02-01 06:21:00,
2013-01-31 23:23:00,55.9,41.8,30.13,WNW,295,3.0,5.0,59,0.00,,,0.00,0,WeatherHawk,2013-02-01 06:23:00,
2013-01-31 23:26:00,55.8,41.7,30.13,NW,308,4.0,5.0,59,0.00,,,0.00,0,WeatherHawk,2013-02-01 06:26:00,
2013-01-31 23:28:00,55.8,41.7,30.13,NW,306,4.0,5.0,59,0.00,,,0.00,0,WeatherHawk,2013-02-01 06:28:00,
2013-01-31 23:31:00,55.8,41.7,30.13,NW,310,4.0,0.0,59,0.00,,,0.00,0,WeatherHawk,2013-02-01 06:31:00,
2013-01-31 23:32:00,55.8,41.7,20.16,NW,311,4.0,0.0,59,0.00,,,0.00,1,WeatherHawk,2013-02-01 06:32:00,
2013-01-31 23:33:00,55.8,41.7,30.13,NW,315,4.0,0.0,59,0.00,,,0.00,0,WeatherHawk,2013-02-01 06:33:00,
2013-01-31 23:37:00,55.8,41.7,30.13,NW,316,4.0,0.0,59,0.00,,,0.00,0,WeatherHawk,2013-02-01 06:37:00,
2013-01-31 23:38:00,55.8,41.7,30.13,NW,316,4.0,0.0,59,0.00,,,0.00,0,WeatherHawk,2013-02-01 06:38:00,
2013-01-31 23:39:00,55.8,42.1,30.13,NW,318,5.0,0.0,60,0.00,,,0.00,0,WeatherHawk,2013-02-01 06:39:00,
2013-01-31 23:43:00,55.6,41.9,30.13,NW,325,6.0,0.0,60,0.00,,,0.00,0,WeatherHawk,2013-02-01 06:43:00,
2013-01-31 23:44:00,55.4,42.2,30.13,NW,322,5.0,0.0,61,0.00,,,0.00,1,WeatherHawk,2013-02-01 06:44:00,
2013-01-31 23:45:00,55.4,42.2,30.13,NW,319,5.0,0.0,61,0.00,,,0.00,0,WeatherHawk,2013-02-01 06:45:00,
2013-01-31 23:48:00,55.0,41.8,30.13,WNW,299,4.0,0.0,61,0.00,,,0.00,0,WeatherHawk,2013-02-01 06:48:00,
2013-01-31 23:49:00,54.9,42.1,30.13,WNW,303,4.0,0.0,62,0.00,,,0.00,0,WeatherHawk,2013-02-01 06:49:00,
2013-01-31 23:50:00,54.9,42.1,30.13,NW,305,4.0,0.0,62,0.00,,,0.00,0,WeatherHawk,2013-02-01 06:50:00,
2013-01-31 23:53:00,54.7,41.9,30.13,NW,312,4.0,0.0,62,0.00,,,0.00,0,WeatherHawk,2013-02-01 06:53:00,
2013-01-31 23:58:00,54.5,42.2,30.12,NW,322,5.0,0.0,63,0.00,,,0.00,0,WeatherHawk,2013-02-01 06:58:00,